| time (UTC) | temp C | wind direction | speed KPH | gust KPH | rain 1hr cm | rain 24hr cm | rain mn cm | humidity % | barometer mb |
| 20260502200334 | 30 | 194 | 4.8 | 20.9 | 0.00 | 0.00 | 0.00 | 62 | 1019.0 |
| 20260502200217 | 30 | 195 | 6.4 | 20.9 | 0.00 | 0.00 | 0.00 | 63 | 1019.0 |
| 20260502200119 | 30 | 195 | 8.0 | 20.9 | 0.00 | 0.00 | 0.00 | 62 | 1019.1 |
| 20260502200021 | 30 | 68 | 8.0 | 20.9 | 0.00 | 0.00 | 0.00 | 62 | 1019.1 |
| 20260502195923 | 30 | 276 | 4.8 | 20.9 | 0.00 | 0.00 | 0.00 | 62 | 1019.0 |
| 20260502195829 | 30 | 101 | 9.7 | 20.9 | 0.00 | 0.00 | 0.00 | 61 | 1019.1 |
| 20260502195711 | 30 | 207 | 12.9 | 20.9 | 0.00 | 0.00 | 0.00 | 61 | 1019.1 |
| 20260502195615 | 30 | 247 | 12.9 | 17.7 | 0.00 | 0.00 | 0.00 | 61 | 1018.9 |
| 20260502195516 | 30 | 250 | 9.7 | 17.7 | 0.00 | 0.00 | 0.00 | 62 | 1019.1 |
| 20260502195416 | 30 | 271 | 6.4 | 17.7 | 0.00 | 0.00 | 0.00 | 62 | 1019.1 |
| 20260502195321 | 30 | 232 | 8.0 | 19.3 | 0.00 | 0.00 | 0.00 | 61 | 1019.0 |
| 20260502195223 | 30 | 259 | 9.7 | 19.3 | 0.00 | 0.00 | 0.00 | 61 | 1019.1 |
| 20260502195110 | 30 | 266 | 8.0 | 19.3 | 0.00 | 0.00 | 0.00 | 61 | 1019.1 |
| 20260502195012 | 30 | 242 | 8.0 | 19.3 | 0.00 | 0.00 | 0.00 | 62 | 1019.0 |
| 20260502194916 | 30 | 300 | 8.0 | 19.3 | 0.00 | 0.00 | 0.00 | 61 | 1019.0 |
| 20260502194819 | 30 | 267 | 6.4 | 19.3 | 0.00 | 0.00 | 0.00 | 62 | 1019.0 |
| 20260502194723 | 30 | 209 | 6.4 | 19.3 | 0.00 | 0.00 | 0.00 | 62 | 1019.0 |
| 20260502194606 | 30 | 167 | 11.3 | 19.3 | 0.00 | 0.00 | 0.00 | 62 | 1019.0 |
| 20260502194514 | 30 | 210 | 9.7 | 19.3 | 0.00 | 0.00 | 0.00 | 61 | 1019.0 |
| 20260502194418 | 30 | 262 | 6.4 | 19.3 | 0.00 | 0.00 | 0.00 | 62 | 1018.9 |
| 20260502194341 | 30 | 263 | 6.4 | 19.3 | 0.00 | 0.00 | 0.00 | 61 | 1018.9 |
| 20260502194242 | 30 | 240 | 8.0 | 19.3 | 0.00 | 0.00 | 0.00 | 62 | 1018.9 |
| 20260502194105 | 30 | 142 | 9.7 | 19.3 | 0.00 | 0.00 | 0.00 | 61 | 1018.9 |
| 20260502194008 | 30 | 204 | 8.0 | 22.5 | 0.00 | 0.00 | 0.00 | 61 | 1018.9 |
| 20260502193910 | 30 | 167 | 11.3 | 22.5 | 0.00 | 0.00 | 0.00 | 60 | 1019.0 |
| 20260502193812 | 30 | 243 | 14.5 | 22.5 | 0.00 | 0.00 | 0.00 | 60 | 1018.9 |
| 20260502193719 | 30 | 247 | 12.9 | 22.5 | 0.00 | 0.00 | 0.00 | 61 | 1018.9 |
| 20260502193623 | 30 | 275 | 8.0 | 22.5 | 0.00 | 0.00 | 0.00 | 62 | 1019.0 |
| 20260502193525 | 30 | 132 | 3.2 | 19.3 | 0.00 | 0.00 | 0.00 | 62 | 1019.0 |
| 20260502193427 | 30 | 229 | 3.2 | 19.3 | 0.00 | 0.00 | 0.00 | 63 | 1019.0 |
| 20260502193309 | 30 | 44 | 3.2 | 19.3 | 0.00 | 0.00 | 0.00 | 63 | 1019.1 |
| 20260502193214 | 30 | 29 | 4.8 | 19.3 | 0.00 | 0.00 | 0.00 | 63 | 1019.0 |
| 20260502193137 | 30 | 243 | 6.4 | 19.3 | 0.00 | 0.00 | 0.00 | 63 | 1018.9 |
| 20260502193041 | 30 | 235 | 9.7 | 19.3 | 0.00 | 0.00 | 0.00 | 63 | 1018.9 |
| 20260502192907 | 30 | 208 | 11.3 | 20.9 | 0.00 | 0.00 | 0.00 | 63 | 1018.9 |
| 20260502192809 | 30 | 225 | 8.0 | 17.7 | 0.00 | 0.00 | 0.00 | 62 | 1019.0 |
| 20260502192713 | 30 | 121 | 8.0 | 14.5 | 0.00 | 0.00 | 0.00 | 63 | 1019.0 |
| 20260502192617 | 30 | 242 | 8.0 | 14.5 | 0.00 | 0.00 | 0.00 | 62 | 1019.0 |
| 20260502192519 | 30 | 213 | 8.0 | 14.5 | 0.00 | 0.00 | 0.00 | 63 | 1018.9 |
| 20260502192422 | 30 | 197 | 6.4 | 14.5 | 0.00 | 0.00 | 0.00 | 63 | 1018.9 |
| 20260502192306 | 30 | 201 | 4.8 | 14.5 | 0.00 | 0.00 | 0.00 | 62 | 1019.0 |
| 20260502192212 | 30 | 113 | 6.4 | 14.5 | 0.00 | 0.00 | 0.00 | 62 | 1019.0 |
| 20260502192116 | 30 | 122 | 6.4 | 14.5 | 0.00 | 0.00 | 0.00 | 62 | 1019.0 |
| 20260502192021 | 30 | 198 | 6.4 | 14.5 | 0.00 | 0.00 | 0.00 | 62 | 1018.9 |
| 20260502191904 | 30 | 207 | 3.2 | 14.5 | 0.00 | 0.00 | 0.00 | 62 | 1018.9 |
| 20260502191808 | 30 | 234 | 4.8 | 19.3 | 0.00 | 0.00 | 0.00 | 61 | 1018.9 |
| 20260502191712 | 30 | 191 | 6.4 | 19.3 | 0.00 | 0.00 | 0.00 | 61 | 1018.9 |
| 20260502191639 | 30 | 222 | 4.8 | 19.3 | 0.00 | 0.00 | 0.00 | 62 | 1018.8 |
| 20260502191542 | 30 | 170 | 4.8 | 19.3 | 0.00 | 0.00 | 0.00 | 61 | 1018.9 |
| 20260502191404 | 30 | 192 | 6.4 | 19.3 | 0.00 | 0.00 | 0.00 | 61 | 1018.9 |
| 20260502191307 | 30 | 210 | 6.4 | 19.3 | 0.00 | 0.00 | 0.00 | 61 | 1018.8 |
| 20260502191211 | 30 | 267 | 4.8 | 19.3 | 0.00 | 0.00 | 0.00 | 61 | 1018.9 |
| 20260502191114 | 30 | 281 | 8.0 | 19.3 | 0.00 | 0.00 | 0.00 | 61 | 1019.0 |
| 20260502191017 | 30 | 157 | 9.7 | 19.3 | 0.00 | 0.00 | 0.00 | 60 | 1018.9 |
| 20260502190944 | 31 | 207 | 11.3 | 19.3 | 0.00 | 0.00 | 0.00 | 60 | 1019.0 |
| 20260502190825 | 31 | 201 | 6.4 | 19.3 | 0.00 | 0.00 | 0.00 | 60 | 1018.9 |
| 20260502190726 | 31 | 211 | 6.4 | 12.9 | 0.00 | 0.00 | 0.00 | 59 | 1018.9 |
| 20260502190607 | 31 | 166 | 6.4 | 12.9 | 0.00 | 0.00 | 0.00 | 59 | 1019.0 |
| 20260502190510 | 31 | 201 | 4.8 | 12.9 | 0.00 | 0.00 | 0.00 | 59 | 1018.9 |
| 20260502190412 | 31 | 224 | 6.4 | 12.9 | 0.00 | 0.00 | 0.00 | 59 | 1019.0 |
| 20260502190314 | 31 | 185 | 4.8 | 11.3 | 0.00 | 0.00 | 0.00 | 60 | 1019.0 |
| 20260502190221 | 31 | 120 | 4.8 | 11.3 | 0.00 | 0.00 | 0.00 | 59 | 1019.1 |
| 20260502190123 | 31 | 219 | 4.8 | 11.3 | 0.00 | 0.00 | 0.00 | 59 | 1019.0 |
| 20260502190006 | 31 | 206 | 4.8 | 11.3 | 0.00 | 0.00 | 0.00 | 59 | 1019.1 |
| 20260502185910 | 31 | 253 | 3.2 | 11.3 | 0.00 | 0.00 | 0.00 | 59 | 1019.1 |
| 20260502185814 | 31 | 314 | 3.2 | 11.3 | 0.00 | 0.00 | 0.00 | 59 | 1019.0 |
| 20260502185738 | 31 | 145 | 3.2 | 11.3 | 0.00 | 0.00 | 0.00 | 59 | 1019.1 |
| 20260502185639 | 31 | 126 | 3.2 | 11.3 | 0.00 | 0.00 | 0.00 | 58 | 1019.1 |
| 20260502185504 | 31 | 127 | 4.8 | 11.3 | 0.00 | 0.00 | 0.00 | 59 | 1019.0 |
| 20260502185407 | 31 | 144 | 4.8 | 11.3 | 0.00 | 0.00 | 0.00 | 59 | 1019.1 |
| 20260502185311 | 31 | 148 | 3.2 | 11.3 | 0.00 | 0.00 | 0.00 | 59 | 1019.1 |
| 20260502185214 | 31 | 198 | 3.2 | 11.3 | 0.00 | 0.00 | 0.00 | 60 | 1019.1 |
| 20260502185116 | 31 | 144 | 4.8 | 11.3 | 0.00 | 0.00 | 0.00 | 59 | 1019.1 |
| 20260502185019 | 31 | 152 | 6.4 | 11.3 | 0.00 | 0.00 | 0.00 | 59 | 1019.2 |
| 20260502184942 | 31 | 207 | 4.8 | 11.3 | 0.00 | 0.00 | 0.00 | 59 | 1019.2 |
| 20260502184807 | 31 | 130 | 3.2 | 14.5 | 0.00 | 0.00 | 0.00 | 59 | 1019.2 |
| 20260502184710 | 31 | 132 | 3.2 | 14.5 | 0.00 | 0.00 | 0.00 | 59 | 1019.3 |
| 20260502184611 | 31 | 132 | 3.2 | 14.5 | 0.00 | 0.00 | 0.00 | 59 | 1019.3 |
| 20260502184533 | 31 | 192 | 3.2 | 14.5 | 0.00 | 0.00 | 0.00 | 60 | 1019.3 |
| 20260502184435 | 31 | 101 | 3.2 | 14.5 | 0.00 | 0.00 | 0.00 | 60 | 1019.3 |
| 20260502184316 | 31 | 187 | 3.2 | 14.5 | 0.00 | 0.00 | 0.00 | 60 | 1019.3 |
| 20260502184221 | 31 | 115 | 3.2 | 14.5 | 0.00 | 0.00 | 0.00 | 59 | 1019.4 |
| 20260502184108 | 31 | 115 | 6.4 | 14.5 | 0.00 | 0.00 | 0.00 | 60 | 1019.4 |
| 20260502184012 | 31 | 115 | 6.4 | 14.5 | 0.00 | 0.00 | 0.00 | 59 | 1019.5 |
| 20260502183915 | 31 | 205 | 4.8 | 14.5 | 0.00 | 0.00 | 0.00 | 59 | 1019.4 |
| 20260502183816 | 31 | 244 | 3.2 | 12.9 | 0.00 | 0.00 | 0.00 | 59 | 1019.4 |
| 20260502183718 | 30 | 295 | 4.8 | 12.9 | 0.00 | 0.00 | 0.00 | 60 | 1019.5 |
| 20260502183622 | 30 | 259 | 4.8 | 12.9 | 0.00 | 0.00 | 0.00 | 60 | 1019.5 |
| 20260502183505 | 30 | 304 | 6.4 | 12.9 | 0.00 | 0.00 | 0.00 | 60 | 1019.4 |
| 20260502183413 | 30 | 289 | 4.8 | 12.9 | 0.00 | 0.00 | 0.00 | 60 | 1019.5 |
| 20260502183317 | 30 | 236 | 4.8 | 12.9 | 0.00 | 0.00 | 0.00 | 60 | 1019.5 |
| 20260502183220 | 30 | 229 | 4.8 | 11.3 | 0.00 | 0.00 | 0.00 | 59 | 1019.5 |
| 20260502183104 | 30 | 221 | 3.2 | 14.5 | 0.00 | 0.00 | 0.00 | 60 | 1019.6 |
| 20260502183004 | 30 | 122 | 1.6 | 16.1 | 0.00 | 0.00 | 0.00 | 60 | 1019.6 |
| 20260502182810 | 30 | 205 | 6.4 | 16.1 | 0.00 | 0.00 | 0.00 | 60 | 1019.6 |
| 20260502182715 | 30 | 219 | 6.4 | 16.1 | 0.00 | 0.00 | 0.00 | 59 | 1019.7 |
| 20260502182619 | 30 | 207 | 4.8 | 16.1 | 0.00 | 0.00 | 0.00 | 59 | 1019.6 |
| 20260502182522 | 30 | 202 | 3.2 | 16.1 | 0.00 | 0.00 | 0.00 | 59 | 1019.8 |
| 20260502182404 | 30 | 145 | 4.8 | 16.1 | 0.00 | 0.00 | 0.00 | 58 | 1019.6 |
| 20260502182307 | 30 | 127 | 8.0 | 16.1 | 0.00 | 0.00 | 0.00 | 58 | 1019.8 |
| 20260502182210 | 30 | 121 | 9.7 | 16.1 | 0.00 | 0.00 | 0.00 | 58 | 1019.7 |
| 20260502182118 | 31 | 130 | 9.7 | 16.1 | 0.00 | 0.00 | 0.00 | 58 | 1019.7 |
| 20260502182022 | 31 | 139 | 9.7 | 16.1 | 0.00 | 0.00 | 0.00 | 57 | 1019.8 |
| 20260502181922 | 31 | 113 | 6.4 | 16.1 | 0.00 | 0.00 | 0.00 | 56 | 1019.8 |
| 20260502181824 | 31 | 83 | 6.4 | 12.9 | 0.00 | 0.00 | 0.00 | 56 | 1019.8 |
| 20260502181706 | 31 | 98 | 9.7 | 12.9 | 0.00 | 0.00 | 0.00 | 55 | 1019.7 |
| 20260502181608 | 31 | 112 | 8.0 | 12.9 | 0.00 | 0.00 | 0.00 | 55 | 1019.8 |
| 20260502181530 | 31 | 138 | 4.8 | 12.9 | 0.00 | 0.00 | 0.00 | 55 | 1019.7 |
| 20260502181431 | 31 | 132 | 1.6 | 4.8 | 0.00 | 0.00 | 0.00 | 56 | 1019.7 |
| 20260502181316 | 31 | 30 | 1.6 | 4.8 | 0.00 | 0.00 | 0.00 | 56 | 1019.6 |
| 20260502181219 | 31 | 30 | 1.6 | 4.8 | 0.00 | 0.00 | 0.00 | 55 | 1019.8 |
| 20260502181121 | 31 | 29 | 3.2 | 4.8 | 0.00 | 0.00 | 0.00 | 55 | 1019.7 |
| 20260502181023 | 31 | 30 | 3.2 | 4.8 | 0.00 | 0.00 | 0.00 | 55 | 1019.6 |
| 20260502180906 | 31 | 21 | 3.2 | 4.8 | 0.00 | 0.00 | 0.00 | 55 | 1019.6 |
| 20260502180809 | 31 | 18 | 3.2 | 4.8 | 0.00 | 0.00 | 0.00 | 55 | 1019.7 |
| 20260502180717 | 31 | 17 | 3.2 | 4.8 | 0.00 | 0.00 | 0.00 | 55 | 1019.8 |
| 20260502180641 | 31 | 16 | 3.2 | 4.8 | 0.00 | 0.00 | 0.00 | 55 | 1019.9 |
| 20260502180544 | 31 | 16 | 1.6 | 6.4 | 0.00 | 0.00 | 0.00 | 56 | 1019.9 |
| 20260502180406 | 31 | 17 | 1.6 | 8.0 | 0.00 | 0.00 | 0.00 | 56 | 1019.9 |
| 20260502180309 | 31 | 19 | 1.6 | 11.3 | 0.00 | 0.00 | 0.00 | 56 | 1019.9 |
| 20260502180213 | 31 | 19 | 1.6 | 11.3 | 0.00 | 0.00 | 0.00 | 56 | 1019.8 |
| 20260502180116 | 31 | 19 | 1.6 | 11.3 | 0.00 | 0.00 | 0.00 | 56 | 1020.0 |
| 20260502170518 | 30 | 112 | 4.8 | 14.5 | 0.00 | 0.00 | 0.00 | 59 | 1020.7 |
| 20260502170422 | 30 | 118 | 4.8 | 14.5 | 0.00 | 0.00 | 0.00 | 59 | 1020.6 |
| 20260502170305 | 30 | 95 | 6.4 | 16.1 | 0.00 | 0.00 | 0.00 | 59 | 1020.6 |
| 20260502170209 | 30 | 89 | 8.0 | 16.1 | 0.00 | 0.00 | 0.00 | 59 | 1020.7 |
| 20260502170115 | 30 | 65 | 8.0 | 16.1 | 0.00 | 0.00 | 0.00 | 59 | 1020.7 |
| 20260502164314 | 29 | 115 | 6.4 | 12.9 | 0.00 | 0.00 | 0.00 | 60 | 1020.8 |
| 20260502164217 | 29 | 90 | 6.4 | 12.9 | 0.00 | 0.00 | 0.00 | 59 | 1020.9 |
| 20260502164121 | 29 | 92 | 6.4 | 12.9 | 0.00 | 0.00 | 0.00 | 59 | 1020.9 |
| 20260502164008 | 29 | 84 | 6.4 | 12.9 | 0.00 | 0.00 | 0.00 | 60 | 1020.9 |
| 20260502163913 | 29 | 134 | 6.4 | 12.9 | 0.00 | 0.00 | 0.00 | 60 | 1020.9 |
| 20260502163815 | 29 | 89 | 4.8 | 11.3 | 0.00 | 0.00 | 0.00 | 61 | 1020.9 |
| 20260502163718 | 29 | 143 | 3.2 | 11.3 | 0.00 | 0.00 | 0.00 | 60 | 1020.9 |
| 20260502163620 | 29 | 143 | 4.8 | 11.3 | 0.00 | 0.00 | 0.00 | 61 | 1020.9 |
| 20260502163523 | 29 | 142 | 3.2 | 11.3 | 0.00 | 0.00 | 0.00 | 60 | 1020.9 |
| 20260502163411 | 29 | 128 | 4.8 | 11.3 | 0.00 | 0.00 | 0.00 | 60 | 1020.9 |
| 20260502163314 | 29 | 128 | 4.8 | 11.3 | 0.00 | 0.00 | 0.00 | 60 | 1020.9 |
| 20260502163217 | 29 | 133 | 3.2 | 11.3 | 0.00 | 0.00 | 0.00 | 61 | 1020.9 |
| 20260502163122 | 29 | 74 | 1.6 | 11.3 | 0.00 | 0.00 | 0.00 | 61 | 1020.9 |
| 20260502163006 | 28 | 48 | 3.2 | 14.5 | 0.00 | 0.00 | 0.00 | 61 | 1020.9 |
| 20260502162910 | 29 | 109 | 6.4 | 14.5 | 0.00 | 0.00 | 0.00 | 60 | 1021.0 |
| 20260502162837 | 29 | 109 | 8.0 | 14.5 | 0.00 | 0.00 | 0.00 | 60 | 1021.0 |
| 20260502162740 | 29 | 112 | 6.4 | 14.5 | 0.00 | 0.00 | 0.00 | 60 | 1021.0 |
| 20260502162622 | 29 | 121 | 3.2 | 14.5 | 0.00 | 0.00 | 0.00 | 60 | 1021.0 |
| 20260502162506 | 29 | 121 | 3.2 | 14.5 | 0.00 | 0.00 | 0.00 | 60 | 1020.9 |
| 20260502162409 | 29 | 123 | 4.8 | 14.5 | 0.00 | 0.00 | 0.00 | 59 | 1021.0 |
| 20260502162313 | 29 | 124 | 6.4 | 14.5 | 0.00 | 0.00 | 0.00 | 60 | 1021.0 |
| 20260502162217 | 29 | 77 | 4.8 | 14.5 | 0.00 | 0.00 | 0.00 | 59 | 1021.0 |
| 20260502162104 | 29 | 318 | 3.2 | 14.5 | 0.00 | 0.00 | 0.00 | 60 | 1021.0 |
| 20260502162008 | 29 | 104 | 3.2 | 11.3 | 0.00 | 0.00 | 0.00 | 60 | 1020.9 |
| 20260502161911 | 29 | 105 | 4.8 | 11.3 | 0.00 | 0.00 | 0.00 | 60 | 1021.0 |
| 20260502161814 | 29 | 46 | 6.4 | 11.3 | 0.00 | 0.00 | 0.00 | 60 | 1020.9 |
| 20260502161718 | 29 | 52 | 6.4 | 12.9 | 0.00 | 0.00 | 0.00 | 60 | 1020.9 |
| 20260502161621 | 29 | 79 | 4.8 | 12.9 | 0.00 | 0.00 | 0.00 | 61 | 1021.0 |
| 20260502161525 | 29 | 113 | 1.6 | 9.7 | 0.00 | 0.00 | 0.00 | 62 | 1021.0 |
| 20260502161411 | 29 | 115 | 1.6 | 8.0 | 0.00 | 0.00 | 0.00 | 62 | 1021.0 |
| 20260502161314 | 29 | 227 | 3.2 | 16.1 | 0.00 | 0.00 | 0.00 | 61 | 1021.1 |
| 20260502161235 | 29 | 231 | 4.8 | 16.1 | 0.00 | 0.00 | 0.00 | 61 | 1021.0 |
| 20260502161114 | 29 | 228 | 4.8 | 17.7 | 0.00 | 0.00 | 0.00 | 61 | 1021.0 |
| 20260502161016 | 29 | 232 | 4.8 | 17.7 | 0.00 | 0.00 | 0.00 | 60 | 1021.1 |
| 20260502160920 | 29 | 238 | 3.2 | 17.7 | 0.00 | 0.00 | 0.00 | 61 | 1021.1 |
| 20260502160822 | 29 | 64 | 3.2 | 17.7 | 0.00 | 0.00 | 0.00 | 61 | 1021.2 |
| 20260502160725 | 29 | 66 | 3.2 | 17.7 | 0.00 | 0.00 | 0.00 | 61 | 1021.1 |
| 20260502160612 | 29 | 102 | 4.8 | 17.7 | 0.00 | 0.00 | 0.00 | 61 | 1021.2 |
| 20260502160516 | 29 | 76 | 8.0 | 17.7 | 0.00 | 0.00 | 0.00 | 61 | 1021.1 |
| 20260502160418 | 29 | 42 | 9.7 | 20.9 | 0.00 | 0.00 | 0.00 | 61 | 1021.2 |
| 20260502160321 | 29 | 21 | 8.0 | 20.9 | 0.00 | 0.00 | 0.00 | 61 | 1021.2 |
| 20260502160225 | 29 | 62 | 6.4 | 20.9 | 0.00 | 0.00 | 0.00 | 62 | 1021.2 |
| 20260502160127 | 29 | 37 | 6.4 | 20.9 | 0.00 | 0.00 | 0.00 | 61 | 1021.1 |
| 20260502152308 | 27 | 60 | 1.6 | 11.3 | 0.00 | 0.00 | 0.00 | 64 | 1021.6 |
| 20260502152210 | 27 | 126 | 3.2 | 11.3 | 0.00 | 0.00 | 0.00 | 64 | 1021.6 |
| 20260502152016 | 27 | 127 | 3.2 | 11.3 | 0.00 | 0.00 | 0.00 | 63 | 1021.6 |
| 20260502151919 | 27 | 126 | 4.8 | 11.3 | 0.00 | 0.00 | 0.00 | 64 | 1021.7 |
| 20260502151821 | 27 | 126 | 6.4 | 12.9 | 0.00 | 0.00 | 0.00 | 64 | 1021.6 |
| 20260502151704 | 27 | 113 | 6.4 | 12.9 | 0.00 | 0.00 | 0.00 | 63 | 1021.5 |
| 20260502151605 | 27 | 94 | 4.8 | 12.9 | 0.00 | 0.00 | 0.00 | 64 | 1021.7 |
| 20260502151511 | 27 | 88 | 4.8 | 12.9 | 0.00 | 0.00 | 0.00 | 64 | 1021.6 |
| 20260502151415 | 27 | 80 | 3.2 | 12.9 | 0.00 | 0.00 | 0.00 | 64 | 1021.7 |
| 20260502151339 | 27 | 79 | 1.6 | 12.9 | 0.00 | 0.00 | 0.00 | 64 | 1021.7 |
| 20260502151242 | 27 | 121 | 3.2 | 12.9 | 0.00 | 0.00 | 0.00 | 64 | 1021.6 |
| 20260502151125 | 27 | 121 | 8.0 | 12.9 | 0.00 | 0.00 | 0.00 | 64 | 1021.7 |
| 20260502151008 | 27 | 122 | 8.0 | 12.9 | 0.00 | 0.00 | 0.00 | 64 | 1021.7 |
| 20260502150911 | 27 | 113 | 9.7 | 12.9 | 0.00 | 0.00 | 0.00 | 64 | 1021.7 |
| 20260502150813 | 27 | 101 | 8.0 | 12.9 | 0.00 | 0.00 | 0.00 | 64 | 1021.7 |
| 20260502150714 | 27 | 92 | 4.8 | 12.9 | 0.00 | 0.00 | 0.00 | 64 | 1021.6 |
| 20260502150641 | 27 | 38 | 3.2 | 9.7 | 0.00 | 0.00 | 0.00 | 65 | 1021.7 |
| 20260502150504 | 27 | 113 | 3.2 | 9.7 | 0.00 | 0.00 | 0.00 | 64 | 1021.7 |
| 20260502150404 | 27 | 113 | 4.8 | 9.7 | 0.00 | 0.00 | 0.00 | 64 | 1021.7 |
| 20260502150306 | 27 | 113 | 4.8 | 9.7 | 0.00 | 0.00 | 0.00 | 64 | 1021.8 |
| 20260502150208 | 27 | 113 | 4.8 | 9.7 | 0.00 | 0.00 | 0.00 | 65 | 1021.8 |
| 20260502150112 | 27 | 77 | 3.2 | 9.7 | 0.00 | 0.00 | 0.00 | 65 | 1021.8 |
| 20260502140116 | 26 | 92 | 1.6 | 9.7 | 0.00 | 0.00 | 0.00 | 68 | 1021.9 |
| 20260502130717 | 23 | 252 | 0.0 | 1.6 | 0.00 | 0.00 | 0.00 | 77 | 1021.8 |
| 20260502130619 | 23 | 252 | 0.0 | 1.6 | 0.00 | 0.00 | 0.00 | 78 | 1021.8 |
| 20260502130521 | 23 | 253 | 0.0 | 1.6 | 0.00 | 0.00 | 0.00 | 78 | 1021.8 |
| 20260502130428 | 23 | 252 | 0.0 | 0.0 | 0.00 | 0.00 | 0.00 | 78 | 1021.9 |
| 20260502130329 | 23 | 252 | 0.0 | 0.0 | 0.00 | 0.00 | 0.00 | 79 | 1021.8 |
| 20260502130231 | 23 | 252 | 0.0 | 0.0 | 0.00 | 0.00 | 0.00 | 79 | 1021.9 |
| 20260502130132 | 23 | 252 | 0.0 | 0.0 | 0.00 | 0.00 | 0.00 | 79 | 1021.8 |
| 20260502123706 | 22 | 252 | 0.0 | 3.2 | 0.00 | 0.00 | 0.00 | 80 | 1021.7 |
| 20260502123610 | 22 | 252 | 1.6 | 3.2 | 0.00 | 0.00 | 0.00 | 81 | 1021.6 |
| 20260502123512 | 22 | 252 | 1.6 | 3.2 | 0.00 | 0.00 | 0.00 | 81 | 1021.7 |
| 20260502123414 | 22 | 252 | 3.2 | 3.2 | 0.00 | 0.00 | 0.00 | 81 | 1021.5 |
| 20260502123336 | 22 | 253 | 1.6 | 3.2 | 0.00 | 0.00 | 0.00 | 81 | 1021.6 |
| 20260502123238 | 22 | 252 | 1.6 | 3.2 | 0.00 | 0.00 | 0.00 | 81 | 1021.6 |
| 20260502123120 | 22 | 252 | 1.6 | 3.2 | 0.00 | 0.00 | 0.00 | 81 | 1021.6 |
| 20260502123003 | 22 | 252 | 0.0 | 3.2 | 0.00 | 0.00 | 0.00 | 81 | 1021.5 |
| 20260502122906 | 22 | 252 | 1.6 | 3.2 | 0.00 | 0.00 | 0.00 | 81 | 1021.6 |
| 20260502122815 | 21 | 252 | 1.6 | 3.2 | 0.00 | 0.00 | 0.00 | 82 | 1021.6 |
| 20260502122717 | 21 | 252 | 1.6 | 3.2 | 0.00 | 0.00 | 0.00 | 82 | 1021.6 |
| 20260502122619 | 21 | 252 | 1.6 | 3.2 | 0.00 | 0.00 | 0.00 | 82 | 1021.7 |
| 20260502122522 | 21 | 252 | 1.6 | 3.2 | 0.00 | 0.00 | 0.00 | 82 | 1021.7 |
| 20260502122404 | 21 | 252 | 1.6 | 3.2 | 0.00 | 0.00 | 0.00 | 82 | 1021.7 |
| 20260502122307 | 21 | 252 | 1.6 | 3.2 | 0.00 | 0.00 | 0.00 | 82 | 1021.6 |
| 20260502122209 | 21 | 252 | 1.6 | 3.2 | 0.00 | 0.00 | 0.00 | 82 | 1021.6 |
| 20260502122117 | 21 | 252 | 1.6 | 3.2 | 0.00 | 0.00 | 0.00 | 82 | 1021.6 |
| 20260502122020 | 21 | 252 | 1.6 | 1.6 | 0.00 | 0.00 | 0.00 | 82 | 1021.5 |
| 20260502121923 | 21 | 252 | 1.6 | 1.6 | 0.00 | 0.00 | 0.00 | 82 | 1021.7 |
| 20260502121805 | 21 | 252 | 0.0 | 1.6 | 0.00 | 0.00 | 0.00 | 82 | 1021.6 |
| 20260502121710 | 21 | 252 | 0.0 | 1.6 | 0.00 | 0.00 | 0.00 | 82 | 1021.6 |
| 20260502121612 | 21 | 252 | 0.0 | 3.2 | 0.00 | 0.00 | 0.00 | 82 | 1021.6 |
| 20260502121514 | 21 | 252 | 0.0 | 3.2 | 0.00 | 0.00 | 0.00 | 82 | 1021.6 |
| 20260502121437 | 21 | 252 | 0.0 | 3.2 | 0.00 | 0.00 | 0.00 | 83 | 1021.6 |
| 20260502121343 | 21 | 252 | 0.0 | 3.2 | 0.00 | 0.00 | 0.00 | 83 | 1021.6 |
| 20260502121205 | 21 | 252 | 0.0 | 3.2 | 0.00 | 0.00 | 0.00 | 83 | 1021.5 |
| 20260502121109 | 21 | 252 | 0.0 | 3.2 | 0.00 | 0.00 | 0.00 | 83 | 1021.5 |
| 20260502121012 | 21 | 252 | 1.6 | 3.2 | 0.00 | 0.00 | 0.00 | 83 | 1021.5 |
| 20260502120915 | 21 | 252 | 1.6 | 3.2 | 0.00 | 0.00 | 0.00 | 83 | 1021.4 |
| 20260502120818 | 21 | 252 | 1.6 | 3.2 | 0.00 | 0.00 | 0.00 | 83 | 1021.4 |
| 20260502120706 | 21 | 252 | 1.6 | 3.2 | 0.00 | 0.00 | 0.00 | 83 | 1021.5 |
| 20260502120609 | 21 | 252 | 1.6 | 3.2 | 0.00 | 0.00 | 0.00 | 83 | 1021.3 |
| 20260502120512 | 21 | 252 | 1.6 | 3.2 | 0.00 | 0.00 | 0.00 | 83 | 1021.5 |
| 20260502120416 | 21 | 252 | 1.6 | 3.2 | 0.00 | 0.00 | 0.00 | 83 | 1021.4 |
| 20260502120318 | 21 | 252 | 1.6 | 3.2 | 0.00 | 0.00 | 0.00 | 83 | 1021.5 |
| 20260502120222 | 21 | 252 | 1.6 | 3.2 | 0.00 | 0.00 | 0.00 | 83 | 1021.5 |
| 20260502120144 | 21 | 252 | 0.0 | 1.6 | 0.00 | 0.00 | 0.00 | 83 | 1021.4 |
| 20260502115903 | 21 | 252 | 0.0 | 0.0 | 0.00 | 0.00 | 0.00 | 83 | 1021.4 |
| 20260502115806 | 21 | 252 | 0.0 | 0.0 | 0.00 | 0.00 | 0.00 | 83 | 1021.5 |
| 20260502115708 | 21 | 252 | 0.0 | 0.0 | 0.00 | 0.00 | 0.00 | 83 | 1021.4 |
| 20260502115610 | 20 | 252 | 0.0 | 3.2 | 0.00 | 0.00 | 0.00 | 83 | 1021.4 |
| 20260502115533 | 20 | 252 | 0.0 | 3.2 | 0.00 | 0.00 | 0.00 | 83 | 1021.4 |
| 20260502115414 | 20 | 252 | 0.0 | 3.2 | 0.00 | 0.00 | 0.00 | 83 | 1021.4 |
| 20260502115318 | 20 | 252 | 0.0 | 3.2 | 0.00 | 0.00 | 0.00 | 83 | 1021.3 |
| 20260502115223 | 20 | 252 | 0.0 | 3.2 | 0.00 | 0.00 | 0.00 | 83 | 1021.3 |
| 20260502115107 | 20 | 252 | 0.0 | 3.2 | 0.00 | 0.00 | 0.00 | 83 | 1021.3 |
| 20260502115010 | 20 | 252 | 0.0 | 3.2 | 0.00 | 0.00 | 0.00 | 83 | 1021.3 |
| 20260502114913 | 20 | 252 | 0.0 | 3.2 | 0.00 | 0.00 | 0.00 | 83 | 1021.3 |
| 20260502114816 | 20 | 252 | 0.0 | 3.2 | 0.00 | 0.00 | 0.00 | 83 | 1021.2 |
| 20260502114717 | 20 | 252 | 0.0 | 3.2 | 0.00 | 0.00 | 0.00 | 83 | 1021.2 |
| 20260502114604 | 20 | 252 | 0.0 | 3.2 | 0.00 | 0.00 | 0.00 | 83 | 1021.2 |
| 20260502114508 | 20 | 252 | 0.0 | 3.2 | 0.00 | 0.00 | 0.00 | 83 | 1021.3 |
| 20260502114412 | 20 | 252 | 0.0 | 3.2 | 0.00 | 0.00 | 0.00 | 83 | 1021.3 |
| 20260502114316 | 20 | 252 | 0.0 | 3.2 | 0.00 | 0.00 | 0.00 | 83 | 1021.3 |
| 20260502114219 | 20 | 252 | 0.0 | 3.2 | 0.00 | 0.00 | 0.00 | 83 | 1021.3 |
| 20260502114103 | 20 | 252 | 1.6 | 3.2 | 0.00 | 0.00 | 0.00 | 83 | 1021.2 |
| 20260502114026 | 20 | 252 | 0.0 | 3.2 | 0.00 | 0.00 | 0.00 | 83 | 1021.2 |
| 20260502113932 | 20 | 252 | 0.0 | 3.2 | 0.00 | 0.00 | 0.00 | 83 | 1021.2 |
| 20260502113835 | 20 | 252 | 0.0 | 3.2 | 0.00 | 0.00 | 0.00 | 83 | 1021.2 |
| 20260502113716 | 20 | 252 | 1.6 | 3.2 | 0.00 | 0.00 | 0.00 | 83 | 1021.2 |
| 20260502113619 | 20 | 252 | 1.6 | 3.2 | 0.00 | 0.00 | 0.00 | 83 | 1021.2 |
| 20260502113521 | 20 | 252 | 1.6 | 3.2 | 0.00 | 0.00 | 0.00 | 83 | 1021.2 |
| 20260502113405 | 20 | 252 | 1.6 | 3.2 | 0.00 | 0.00 | 0.00 | 83 | 1021.2 |
| 20260502113308 | 20 | 252 | 1.6 | 3.2 | 0.00 | 0.00 | 0.00 | 83 | 1021.2 |
| 20260502113215 | 20 | 252 | 1.6 | 3.2 | 0.00 | 0.00 | 0.00 | 83 | 1021.3 |
| 20260502113118 | 20 | 252 | 1.6 | 3.2 | 0.00 | 0.00 | 0.00 | 83 | 1021.3 |
| 20260502113021 | 20 | 252 | 1.6 | 3.2 | 0.00 | 0.00 | 0.00 | 83 | 1021.3 |
| 20260502112923 | 20 | 252 | 1.6 | 3.2 | 0.00 | 0.00 | 0.00 | 83 | 1021.3 |
| 20260502112806 | 20 | 252 | 1.6 | 3.2 | 0.00 | 0.00 | 0.00 | 83 | 1021.3 |
| 20260502112709 | 21 | 252 | 1.6 | 3.2 | 0.00 | 0.00 | 0.00 | 83 | 1021.2 |
| 20260502112616 | 20 | 252 | 1.6 | 3.2 | 0.00 | 0.00 | 0.00 | 82 | 1021.3 |
| 20260502112518 | 20 | 252 | 1.6 | 3.2 | 0.00 | 0.00 | 0.00 | 82 | 1021.2 |
| 20260502112420 | 20 | 252 | 1.6 | 3.2 | 0.00 | 0.00 | 0.00 | 82 | 1021.3 |
| 20260502112324 | 21 | 252 | 3.2 | 3.2 | 0.00 | 0.00 | 0.00 | 82 | 1021.2 |
| 20260502112204 | 21 | 252 | 3.2 | 3.2 | 0.00 | 0.00 | 0.00 | 82 | 1021.3 |
| 20260502112105 | 21 | 252 | 1.6 | 3.2 | 0.00 | 0.00 | 0.00 | 82 | 1021.2 |
| 20260502112008 | 21 | 252 | 1.6 | 3.2 | 0.00 | 0.00 | 0.00 | 82 | 1021.2 |
| 20260502111934 | 21 | 252 | 1.6 | 3.2 | 0.00 | 0.00 | 0.00 | 82 | 1021.2 |
| 20260502111838 | 21 | 252 | 1.6 | 3.2 | 0.00 | 0.00 | 0.00 | 82 | 1021.2 |
| 20260502111719 | 21 | 252 | 1.6 | 3.2 | 0.00 | 0.00 | 0.00 | 82 | 1021.2 |
| 20260502111621 | 21 | 252 | 1.6 | 3.2 | 0.00 | 0.00 | 0.00 | 82 | 1021.3 |
| 20260502111543 | 21 | 252 | 1.6 | 3.2 | 0.00 | 0.00 | 0.00 | 82 | 1021.2 |
| 20260502111425 | 21 | 252 | 1.6 | 3.2 | 0.00 | 0.00 | 0.00 | 82 | 1021.2 |
| 20260502111326 | 21 | 252 | 1.6 | 3.2 | 0.00 | 0.00 | 0.00 | 82 | 1021.2 |
| 20260502111209 | 21 | 252 | 1.6 | 3.2 | 0.00 | 0.00 | 0.00 | 82 | 1021.2 |
| 20260502111115 | 21 | 252 | 1.6 | 3.2 | 0.00 | 0.00 | 0.00 | 82 | 1021.2 |
| 20260502111016 | 21 | 252 | 1.6 | 3.2 | 0.00 | 0.00 | 0.00 | 82 | 1021.1 |
| 20260502110917 | 21 | 252 | 1.6 | 3.2 | 0.00 | 0.00 | 0.00 | 82 | 1021.2 |
| 20260502110820 | 21 | 252 | 1.6 | 4.8 | 0.00 | 0.00 | 0.00 | 82 | 1021.0 |
| 20260502110722 | 21 | 252 | 1.6 | 4.8 | 0.00 | 0.00 | 0.00 | 82 | 1021.1 |
| 20260502110605 | 21 | 252 | 1.6 | 4.8 | 0.00 | 0.00 | 0.00 | 82 | 1021.0 |
| 20260502110509 | 21 | 252 | 1.6 | 4.8 | 0.00 | 0.00 | 0.00 | 82 | 1021.0 |
| 20260502110433 | 21 | 252 | 1.6 | 4.8 | 0.00 | 0.00 | 0.00 | 82 | 1021.1 |
| 20260502110319 | 21 | 252 | 1.6 | 4.8 | 0.00 | 0.00 | 0.00 | 82 | 1021.0 |
| 20260502110221 | 21 | 252 | 1.6 | 4.8 | 0.00 | 0.00 | 0.00 | 82 | 1020.9 |
| 20260502110122 | 21 | 252 | 3.2 | 4.8 | 0.00 | 0.00 | 0.00 | 82 | 1021.0 |
| 20260502110023 | 21 | 252 | 3.2 | 4.8 | 0.00 | 0.00 | 0.00 | 82 | 1021.0 |
| 20260502105904 | 21 | 252 | 1.6 | 3.2 | 0.00 | 0.00 | 0.00 | 82 | 1021.0 |
| 20260502105806 | 21 | 251 | 1.6 | 3.2 | 0.00 | 0.00 | 0.00 | 82 | 1021.1 |
| 20260502105709 | 21 | 251 | 1.6 | 3.2 | 0.00 | 0.00 | 0.00 | 82 | 1020.9 |
| 20260502105613 | 21 | 251 | 1.6 | 3.2 | 0.00 | 0.00 | 0.00 | 82 | 1020.9 |
| 20260502105519 | 21 | 251 | 0.0 | 4.8 | 0.00 | 0.00 | 0.00 | 82 | 1020.9 |
| 20260502105423 | 21 | 251 | 0.0 | 4.8 | 0.00 | 0.00 | 0.00 | 82 | 1021.0 |
| 20260502105306 | 21 | 251 | 1.6 | 4.8 | 0.00 | 0.00 | 0.00 | 82 | 1021.0 |
| 20260502105207 | 21 | 251 | 1.6 | 4.8 | 0.00 | 0.00 | 0.00 | 82 | 1021.0 |
| 20260502105109 | 21 | 251 | 1.6 | 4.8 | 0.00 | 0.00 | 0.00 | 82 | 1021.1 |
| 20260502105032 | 21 | 251 | 1.6 | 4.8 | 0.00 | 0.00 | 0.00 | 82 | 1021.0 |
| 20260502104934 | 21 | 251 | 1.6 | 4.8 | 0.00 | 0.00 | 0.00 | 82 | 1021.0 |
| 20260502104820 | 21 | 251 | 3.2 | 4.8 | 0.00 | 0.00 | 0.00 | 82 | 1021.0 |
| 20260502104721 | 21 | 251 | 3.2 | 4.8 | 0.00 | 0.00 | 0.00 | 82 | 1021.0 |
| 20260502104622 | 21 | 251 | 3.2 | 3.2 | 0.00 | 0.00 | 0.00 | 82 | 1020.9 |
| 20260502104524 | 21 | 251 | 1.6 | 3.2 | 0.00 | 0.00 | 0.00 | 82 | 1020.9 |
| 20260502104426 | 21 | 251 | 1.6 | 3.2 | 0.00 | 0.00 | 0.00 | 82 | 1021.0 |
| 20260502104308 | 21 | 250 | 1.6 | 3.2 | 0.00 | 0.00 | 0.00 | 82 | 1020.9 |
| 20260502104211 | 21 | 250 | 1.6 | 3.2 | 0.00 | 0.00 | 0.00 | 82 | 1020.9 |
| 20260502104118 | 21 | 250 | 3.2 | 3.2 | 0.00 | 0.00 | 0.00 | 82 | 1020.8 |
| 20260502104021 | 21 | 250 | 3.2 | 3.2 | 0.00 | 0.00 | 0.00 | 82 | 1020.8 |
| 20260502103904 | 21 | 251 | 3.2 | 3.2 | 0.00 | 0.00 | 0.00 | 82 | 1020.9 |
| 20260502103806 | 21 | 251 | 3.2 | 3.2 | 0.00 | 0.00 | 0.00 | 82 | 1020.8 |
| 20260502103709 | 21 | 251 | 1.6 | 3.2 | 0.00 | 0.00 | 0.00 | 82 | 1020.8 |
| 20260502103613 | 21 | 251 | 1.6 | 3.2 | 0.00 | 0.00 | 0.00 | 82 | 1020.8 |
| 20260502103522 | 21 | 251 | 3.2 | 3.2 | 0.00 | 0.00 | 0.00 | 82 | 1020.9 |
| 20260502103405 | 21 | 251 | 3.2 | 3.2 | 0.00 | 0.00 | 0.00 | 82 | 1020.9 |
| 20260502103308 | 21 | 251 | 3.2 | 3.2 | 0.00 | 0.00 | 0.00 | 82 | 1020.8 |
| 20260502103210 | 21 | 251 | 3.2 | 3.2 | 0.00 | 0.00 | 0.00 | 82 | 1020.8 |
| 20260502103113 | 21 | 251 | 1.6 | 3.2 | 0.00 | 0.00 | 0.00 | 82 | 1020.7 |
| 20260502103016 | 21 | 251 | 1.6 | 3.2 | 0.00 | 0.00 | 0.00 | 82 | 1020.7 |
| 20260502102923 | 21 | 251 | 1.6 | 3.2 | 0.00 | 0.00 | 0.00 | 82 | 1020.7 |
| 20260502102805 | 21 | 251 | 1.6 | 3.2 | 0.00 | 0.00 | 0.00 | 82 | 1020.7 |
| 20260502102707 | 21 | 251 | 1.6 | 3.2 | 0.00 | 0.00 | 0.00 | 82 | 1020.7 |
| 20260502102611 | 21 | 251 | 1.6 | 3.2 | 0.00 | 0.00 | 0.00 | 82 | 1020.7 |
| 20260502102515 | 21 | 250 | 1.6 | 3.2 | 0.00 | 0.00 | 0.00 | 82 | 1020.7 |
| 20260502102419 | 21 | 251 | 3.2 | 3.2 | 0.00 | 0.00 | 0.00 | 82 | 1020.7 |
| 20260502102306 | 21 | 250 | 3.2 | 3.2 | 0.00 | 0.00 | 0.00 | 82 | 1020.7 |
| 20260502102207 | 21 | 251 | 3.2 | 3.2 | 0.00 | 0.00 | 0.00 | 82 | 1020.7 |
| 20260502102111 | 21 | 251 | 1.6 | 3.2 | 0.00 | 0.00 | 0.00 | 82 | 1020.7 |
| 20260502102014 | 21 | 251 | 1.6 | 3.2 | 0.00 | 0.00 | 0.00 | 82 | 1020.7 |
| 20260502101917 | 21 | 250 | 1.6 | 3.2 | 0.00 | 0.00 | 0.00 | 82 | 1020.7 |
| 20260502101820 | 21 | 251 | 1.6 | 3.2 | 0.00 | 0.00 | 0.00 | 82 | 1020.7 |
| 20260502101727 | 21 | 250 | 0.0 | 3.2 | 0.00 | 0.00 | 0.00 | 82 | 1020.6 |
| 20260502101628 | 21 | 250 | 0.0 | 3.2 | 0.00 | 0.00 | 0.00 | 82 | 1020.6 |
| 20260502101510 | 21 | 251 | 0.0 | 3.2 | 0.00 | 0.00 | 0.00 | 82 | 1020.5 |
| 20260502101412 | 21 | 251 | 0.0 | 3.2 | 0.00 | 0.00 | 0.00 | 82 | 1020.5 |
| 20260502101314 | 21 | 251 | 0.0 | 3.2 | 0.00 | 0.00 | 0.00 | 82 | 1020.6 |
| 20260502101216 | 21 | 251 | 0.0 | 3.2 | 0.00 | 0.00 | 0.00 | 82 | 1020.7 |
| 20260502101118 | 21 | 251 | 0.0 | 3.2 | 0.00 | 0.00 | 0.00 | 82 | 1020.7 |
| 20260502101021 | 21 | 251 | 0.0 | 3.2 | 0.00 | 0.00 | 0.00 | 82 | 1020.7 |
| 20260502100944 | 21 | 251 | 1.6 | 3.2 | 0.00 | 0.00 | 0.00 | 81 | 1020.5 |
| 20260502100810 | 21 | 251 | 0.0 | 3.2 | 0.00 | 0.00 | 0.00 | 81 | 1020.7 |
| 20260502100733 | 21 | 251 | 0.0 | 3.2 | 0.00 | 0.00 | 0.00 | 81 | 1020.7 |
| 20260502100636 | 21 | 251 | 0.0 | 3.2 | 0.00 | 0.00 | 0.00 | 81 | 1020.6 |
| 20260502100517 | 21 | 250 | 0.0 | 3.2 | 0.00 | 0.00 | 0.00 | 81 | 1020.6 |
| 20260502100420 | 21 | 251 | 0.0 | 3.2 | 0.00 | 0.00 | 0.00 | 81 | 1020.7 |
| 20260502100344 | 21 | 251 | 1.6 | 3.2 | 0.00 | 0.00 | 0.00 | 81 | 1020.6 |
| 20260502100226 | 21 | 251 | 1.6 | 3.2 | 0.00 | 0.00 | 0.00 | 81 | 1020.6 |
| 20260502100108 | 21 | 251 | 1.6 | 3.2 | 0.00 | 0.00 | 0.00 | 81 | 1020.5 |
| 20260502091514 | 21 | 251 | 0.0 | 1.6 | 0.00 | 0.00 | 0.00 | 81 | 1020.2 |
| 20260502091417 | 21 | 251 | 0.0 | 1.6 | 0.00 | 0.00 | 0.00 | 81 | 1020.3 |
| 20260502091320 | 21 | 251 | 0.0 | 1.6 | 0.00 | 0.00 | 0.00 | 81 | 1020.3 |
| 20260502091208 | 21 | 251 | 0.0 | 1.6 | 0.00 | 0.00 | 0.00 | 81 | 1020.3 |
| 20260502091111 | 21 | 251 | 0.0 | 1.6 | 0.00 | 0.00 | 0.00 | 81 | 1020.3 |
| 20260502091012 | 21 | 251 | 0.0 | 1.6 | 0.00 | 0.00 | 0.00 | 81 | 1020.3 |
| 20260502090915 | 21 | 251 | 0.0 | 1.6 | 0.00 | 0.00 | 0.00 | 81 | 1020.3 |
| 20260502090819 | 21 | 251 | 0.0 | 1.6 | 0.00 | 0.00 | 0.00 | 81 | 1020.3 |
| 20260502090722 | 21 | 251 | 0.0 | 3.2 | 0.00 | 0.00 | 0.00 | 81 | 1020.2 |
| 20260502090609 | 21 | 251 | 0.0 | 3.2 | 0.00 | 0.00 | 0.00 | 81 | 1020.3 |
| 20260502090513 | 21 | 251 | 1.6 | 3.2 | 0.00 | 0.00 | 0.00 | 81 | 1020.2 |
| 20260502090415 | 21 | 251 | 0.0 | 3.2 | 0.00 | 0.00 | 0.00 | 81 | 1020.3 |
| 20260502090319 | 21 | 251 | 0.0 | 3.2 | 0.00 | 0.00 | 0.00 | 81 | 1020.3 |
| 20260502090222 | 21 | 251 | 0.0 | 3.2 | 0.00 | 0.00 | 0.00 | 81 | 1020.2 |
| 20260502090105 | 21 | 251 | 1.6 | 3.2 | 0.00 | 0.00 | 0.00 | 81 | 1020.3 |
| 20260502071535 | 22 | 251 | 0.0 | 1.6 | 0.00 | 0.00 | 0.00 | 78 | 1020.7 |
| 20260502071416 | 22 | 251 | 0.0 | 3.2 | 0.00 | 0.00 | 0.00 | 78 | 1020.7 |
| 20260502071319 | 22 | 251 | 0.0 | 3.2 | 0.00 | 0.00 | 0.00 | 78 | 1020.8 |
| 20260502071206 | 22 | 251 | 0.0 | 3.2 | 0.00 | 0.00 | 0.00 | 78 | 1020.7 |
| 20260502071108 | 22 | 251 | 0.0 | 4.8 | 0.00 | 0.00 | 0.00 | 78 | 1020.8 |
| 20260502071011 | 22 | 251 | 1.6 | 4.8 | 0.00 | 0.00 | 0.00 | 78 | 1020.8 |
| 20260502070914 | 22 | 251 | 0.0 | 4.8 | 0.00 | 0.00 | 0.00 | 77 | 1020.8 |
| 20260502070814 | 22 | 251 | 0.0 | 4.8 | 0.00 | 0.00 | 0.00 | 77 | 1020.8 |
| 20260502070717 | 22 | 251 | 1.6 | 4.8 | 0.00 | 0.00 | 0.00 | 78 | 1020.8 |
| 20260502070639 | 22 | 251 | 1.6 | 4.8 | 0.00 | 0.00 | 0.00 | 78 | 1020.8 |
| 20260502070524 | 22 | 251 | 1.6 | 4.8 | 0.00 | 0.00 | 0.00 | 78 | 1020.8 |
| 20260502070426 | 22 | 251 | 3.2 | 4.8 | 0.00 | 0.00 | 0.00 | 78 | 1020.8 |
| 20260502070308 | 22 | 251 | 3.2 | 4.8 | 0.00 | 0.00 | 0.00 | 78 | 1020.8 |
| 20260502070211 | 22 | 251 | 3.2 | 4.8 | 0.00 | 0.00 | 0.00 | 78 | 1020.8 |
| 20260502070113 | 22 | 251 | 3.2 | 3.2 | 0.00 | 0.00 | 0.00 | 78 | 1020.9 |
| 20260502070017 | 22 | 251 | 1.6 | 3.2 | 0.00 | 0.00 | 0.00 | 78 | 1021.1 |
| 20260502065918 | 22 | 251 | 3.2 | 3.2 | 0.00 | 0.00 | 0.00 | 78 | 1020.9 |
| 20260502065805 | 22 | 251 | 1.6 | 3.2 | 0.00 | 0.00 | 0.00 | 78 | 1020.8 |
| 20260502065708 | 22 | 250 | 1.6 | 3.2 | 0.00 | 0.00 | 0.00 | 79 | 1020.8 |
| 20260502065609 | 22 | 250 | 0.0 | 3.2 | 0.00 | 0.00 | 0.00 | 79 | 1020.8 |
| 20260502065512 | 22 | 250 | 0.0 | 3.2 | 0.00 | 0.00 | 0.00 | 79 | 1020.8 |
| 20260502065415 | 22 | 250 | 0.0 | 3.2 | 0.00 | 0.00 | 0.00 | 79 | 1020.9 |
| 20260502065316 | 22 | 250 | 1.6 | 3.2 | 0.00 | 0.00 | 0.00 | 79 | 1020.8 |
| 20260502065215 | 22 | 250 | 1.6 | 3.2 | 0.00 | 0.00 | 0.00 | 79 | 1020.8 |
| 20260502065121 | 22 | 250 | 1.6 | 1.6 | 0.00 | 0.00 | 0.00 | 79 | 1020.8 |
| 20260502065004 | 22 | 250 | 1.6 | 1.6 | 0.00 | 0.00 | 0.00 | 79 | 1020.9 |
| 20260502064906 | 22 | 250 | 0.0 | 1.6 | 0.00 | 0.00 | 0.00 | 79 | 1020.8 |
| 20260502064809 | 22 | 250 | 0.0 | 0.0 | 0.00 | 0.00 | 0.00 | 79 | 1020.7 |
| 20260502064711 | 22 | 250 | 0.0 | 0.0 | 0.00 | 0.00 | 0.00 | 79 | 1020.9 |
| 20260502064612 | 22 | 250 | 0.0 | 0.0 | 0.00 | 0.00 | 0.00 | 79 | 1020.9 |
| 20260502064519 | 22 | 250 | 0.0 | 0.0 | 0.00 | 0.00 | 0.00 | 79 | 1020.9 |
| 20260502064443 | 22 | 250 | 0.0 | 1.6 | 0.00 | 0.00 | 0.00 | 79 | 1020.8 |
| 20260502064344 | 22 | 250 | 0.0 | 1.6 | 0.00 | 0.00 | 0.00 | 79 | 1020.8 |
| 20260502064205 | 22 | 250 | 0.0 | 4.8 | 0.00 | 0.00 | 0.00 | 79 | 1020.8 |
| 20260502064106 | 22 | 250 | 0.0 | 4.8 | 0.00 | 0.00 | 0.00 | 79 | 1020.9 |
| 20260502064008 | 22 | 250 | 0.0 | 4.8 | 0.00 | 0.00 | 0.00 | 79 | 1020.8 |
| 20260502063909 | 22 | 250 | 0.0 | 4.8 | 0.00 | 0.00 | 0.00 | 79 | 1020.8 |
| 20260502063812 | 22 | 250 | 0.0 | 4.8 | 0.00 | 0.00 | 0.00 | 79 | 1020.8 |
| 20260502063714 | 22 | 250 | 0.0 | 4.8 | 0.00 | 0.00 | 0.00 | 79 | 1020.8 |
| 20260502063621 | 22 | 250 | 0.0 | 4.8 | 0.00 | 0.00 | 0.00 | 79 | 1020.9 |
| 20260502063504 | 22 | 250 | 1.6 | 4.8 | 0.00 | 0.00 | 0.00 | 79 | 1020.8 |
| 20260502063407 | 22 | 250 | 1.6 | 4.8 | 0.00 | 0.00 | 0.00 | 79 | 1020.9 |
| 20260502063311 | 22 | 250 | 1.6 | 3.2 | 0.00 | 0.00 | 0.00 | 79 | 1020.8 |
| 20260502063213 | 22 | 250 | 1.6 | 3.2 | 0.00 | 0.00 | 0.00 | 79 | 1020.9 |
| 20260502063116 | 22 | 250 | 1.6 | 3.2 | 0.00 | 0.00 | 0.00 | 79 | 1020.9 |
| 20260502063023 | 22 | 250 | 1.6 | 3.2 | 0.00 | 0.00 | 0.00 | 79 | 1020.8 |
| 20260502062925 | 22 | 250 | 1.6 | 3.2 | 0.00 | 0.00 | 0.00 | 79 | 1020.8 |
| 20260502062807 | 22 | 250 | 1.6 | 3.2 | 0.00 | 0.00 | 0.00 | 78 | 1020.9 |
| 20260502062709 | 22 | 250 | 0.0 | 3.2 | 0.00 | 0.00 | 0.00 | 78 | 1020.8 |
| 20260502062631 | 22 | 250 | 0.0 | 6.4 | 0.00 | 0.00 | 0.00 | 78 | 1020.9 |
| 20260502062533 | 22 | 250 | 0.0 | 6.4 | 0.00 | 0.00 | 0.00 | 78 | 1020.8 |
| 20260502062416 | 22 | 250 | 1.6 | 6.4 | 0.00 | 0.00 | 0.00 | 78 | 1020.9 |
| 20260502062322 | 22 | 250 | 0.0 | 6.4 | 0.00 | 0.00 | 0.00 | 78 | 1020.8 |
| 20260502062205 | 22 | 250 | 1.6 | 6.4 | 0.00 | 0.00 | 0.00 | 78 | 1020.9 |
| 20260502062109 | 22 | 250 | 1.6 | 6.4 | 0.00 | 0.00 | 0.00 | 78 | 1020.8 |
| 20260502062010 | 22 | 250 | 1.6 | 6.4 | 0.00 | 0.00 | 0.00 | 78 | 1020.8 |
| 20260502061913 | 22 | 250 | 1.6 | 6.4 | 0.00 | 0.00 | 0.00 | 78 | 1020.8 |
| 20260502061817 | 22 | 250 | 3.2 | 6.4 | 0.00 | 0.00 | 0.00 | 78 | 1020.8 |
| 20260502061507 | 22 | 282 | 1.6 | 6.4 | 0.00 | 0.00 | 0.00 | 78 | 1020.9 |
| 20260502061333 | 22 | 282 | 3.2 | 6.4 | 0.00 | 0.00 | 0.00 | 78 | 1020.9 |
| 20260502061215 | 22 | 282 | 3.2 | 6.4 | 0.00 | 0.00 | 0.00 | 78 | 1020.9 |
| 20260502061118 | 22 | 286 | 3.2 | 6.4 | 0.00 | 0.00 | 0.00 | 78 | 1020.9 |
| 20260502061020 | 22 | 281 | 3.2 | 6.4 | 0.00 | 0.00 | 0.00 | 78 | 1020.9 |
| 20260502060923 | 22 | 280 | 3.2 | 6.4 | 0.00 | 0.00 | 0.00 | 77 | 1020.9 |
| 20260502060809 | 22 | 295 | 3.2 | 6.4 | 0.00 | 0.00 | 0.00 | 77 | 1020.9 |
| 20260502060712 | 22 | 295 | 3.2 | 6.4 | 0.00 | 0.00 | 0.00 | 77 | 1020.9 |
| 20260502060614 | 22 | 300 | 3.2 | 6.4 | 0.00 | 0.00 | 0.00 | 77 | 1020.9 |
| 20260502060516 | 22 | 300 | 3.2 | 6.4 | 0.00 | 0.00 | 0.00 | 77 | 1020.9 |
| 20260502060420 | 23 | 300 | 3.2 | 6.4 | 0.00 | 0.00 | 0.00 | 77 | 1020.9 |
| 20260502060323 | 22 | 302 | 4.8 | 6.4 | 0.00 | 0.00 | 0.00 | 77 | 1020.8 |
| 20260502060210 | 22 | 286 | 3.2 | 6.4 | 0.00 | 0.00 | 0.00 | 77 | 1021.0 |
| 20260502060114 | 23 | 277 | 3.2 | 8.0 | 0.00 | 0.00 | 0.00 | 77 | 1020.9 |
| 20260502060017 | 23 | 277 | 3.2 | 8.0 | 0.00 | 0.00 | 0.00 | 77 | 1021.0 |
| 20260502055913 | 23 | 277 | 4.8 | 8.0 | 0.00 | 0.00 | 0.00 | 77 | 1021.0 |
| 20260502055816 | 23 | 276 | 4.8 | 8.0 | 0.00 | 0.00 | 0.00 | 77 | 1021.0 |
| 20260502055718 | 22 | 285 | 3.2 | 8.0 | 0.00 | 0.00 | 0.00 | 77 | 1021.1 |
| 20260502055619 | 23 | 288 | 1.6 | 8.0 | 0.00 | 0.00 | 0.00 | 77 | 1021.0 |
| 20260502055507 | 23 | 278 | 1.6 | 8.0 | 0.00 | 0.00 | 0.00 | 77 | 1021.0 |
| 20260502055409 | 23 | 278 | 3.2 | 8.0 | 0.00 | 0.00 | 0.00 | 77 | 1021.0 |
| 20260502055313 | 23 | 278 | 4.8 | 8.0 | 0.00 | 0.00 | 0.00 | 77 | 1021.0 |
| 20260502055216 | 23 | 278 | 6.4 | 8.0 | 0.00 | 0.00 | 0.00 | 77 | 1021.1 |
| 20260502055140 | 23 | 273 | 4.8 | 9.7 | 0.00 | 0.00 | 0.00 | 77 | 1021.0 |
| 20260502055043 | 23 | 294 | 4.8 | 6.4 | 0.00 | 0.00 | 0.00 | 77 | 1021.0 |
| 20260502054904 | 23 | 286 | 4.8 | 6.4 | 0.00 | 0.00 | 0.00 | 77 | 1021.0 |
| 20260502054810 | 23 | 287 | 4.8 | 6.4 | 0.00 | 0.00 | 0.00 | 77 | 1021.1 |
| 20260502054714 | 23 | 281 | 4.8 | 6.4 | 0.00 | 0.00 | 0.00 | 77 | 1021.1 |
| 20260502054617 | 23 | 281 | 4.8 | 6.4 | 0.00 | 0.00 | 0.00 | 77 | 1021.2 |
| 20260502054521 | 23 | 280 | 4.8 | 6.4 | 0.00 | 0.00 | 0.00 | 77 | 1021.2 |
| 20260502054404 | 23 | 284 | 3.2 | 6.4 | 0.00 | 0.00 | 0.00 | 77 | 1021.2 |
| 20260502054307 | 23 | 282 | 3.2 | 6.4 | 0.00 | 0.00 | 0.00 | 77 | 1021.2 |
| 20260502054210 | 23 | 281 | 3.2 | 6.4 | 0.00 | 0.00 | 0.00 | 77 | 1021.1 |
| 20260502054118 | 23 | 279 | 3.2 | 6.4 | 0.00 | 0.00 | 0.00 | 77 | 1021.2 |
| 20260502054022 | 23 | 279 | 4.8 | 6.4 | 0.00 | 0.00 | 0.00 | 76 | 1021.2 |
| 20260502053905 | 23 | 279 | 4.8 | 6.4 | 0.00 | 0.00 | 0.00 | 76 | 1021.2 |
| 20260502053809 | 23 | 279 | 3.2 | 4.8 | 0.00 | 0.00 | 0.00 | 76 | 1021.2 |
| 20260502053712 | 23 | 278 | 3.2 | 6.4 | 0.00 | 0.00 | 0.00 | 76 | 1021.1 |
| 20260502053616 | 23 | 279 | 3.2 | 6.4 | 0.00 | 0.00 | 0.00 | 76 | 1021.2 |
| 20260502053504 | 23 | 242 | 3.2 | 6.4 | 0.00 | 0.00 | 0.00 | 76 | 1021.2 |
| 20260502053406 | 23 | 242 | 1.6 | 6.4 | 0.00 | 0.00 | 0.00 | 76 | 1021.2 |
| 20260502053307 | 23 | 242 | 0.0 | 6.4 | 0.00 | 0.00 | 0.00 | 76 | 1021.2 |
| 20260502053209 | 23 | 242 | 0.0 | 6.4 | 0.00 | 0.00 | 0.00 | 76 | 1021.2 |
| 20260502053111 | 23 | 242 | 1.6 | 6.4 | 0.00 | 0.00 | 0.00 | 76 | 1021.2 |
| 20260502053034 | 23 | 242 | 3.2 | 6.4 | 0.00 | 0.00 | 0.00 | 76 | 1021.2 |
| 20260502052936 | 23 | 242 | 3.2 | 6.4 | 0.00 | 0.00 | 0.00 | 76 | 1021.2 |
| 20260502052817 | 23 | 229 | 3.2 | 4.8 | 0.00 | 0.00 | 0.00 | 76 | 1021.3 |
| 20260502052704 | 23 | 229 | 3.2 | 4.8 | 0.00 | 0.00 | 0.00 | 76 | 1021.2 |
| 20260502052608 | 23 | 229 | 3.2 | 4.8 | 0.00 | 0.00 | 0.00 | 76 | 1021.4 |
| 20260502052510 | 23 | 224 | 3.2 | 4.8 | 0.00 | 0.00 | 0.00 | 76 | 1021.4 |
| 20260502052414 | 23 | 13 | 1.6 | 4.8 | 0.00 | 0.00 | 0.00 | 76 | 1021.3 |
| 20260502052318 | 23 | 13 | 1.6 | 4.8 | 0.00 | 0.00 | 0.00 | 76 | 1021.3 |
| 20260502052205 | 23 | 14 | 0.0 | 4.8 | 0.00 | 0.00 | 0.00 | 76 | 1021.3 |
| 20260502052106 | 23 | 14 | 0.0 | 4.8 | 0.00 | 0.00 | 0.00 | 76 | 1021.3 |
| 20260502052008 | 23 | 14 | 0.0 | 4.8 | 0.00 | 0.00 | 0.00 | 76 | 1021.3 |
| 20260502051909 | 23 | 13 | 0.0 | 4.8 | 0.00 | 0.00 | 0.00 | 76 | 1021.3 |
| 20260502051833 | 23 | 14 | 1.6 | 4.8 | 0.00 | 0.00 | 0.00 | 76 | 1021.4 |
| 20260502051734 | 23 | 13 | 3.2 | 4.8 | 0.00 | 0.00 | 0.00 | 76 | 1021.2 |
| 20260502051614 | 23 | 257 | 3.2 | 4.8 | 0.00 | 0.00 | 0.00 | 76 | 1021.3 |
| 20260502051516 | 23 | 248 | 1.6 | 4.8 | 0.00 | 0.00 | 0.00 | 76 | 1021.3 |
| 20260502051423 | 23 | 248 | 1.6 | 3.2 | 0.00 | 0.00 | 0.00 | 76 | 1021.3 |
| 20260502051306 | 23 | 248 | 1.6 | 3.2 | 0.00 | 0.00 | 0.00 | 76 | 1021.4 |
| 20260502051208 | 23 | 248 | 0.0 | 3.2 | 0.00 | 0.00 | 0.00 | 76 | 1021.2 |
| 20260502051109 | 23 | 248 | 0.0 | 3.2 | 0.00 | 0.00 | 0.00 | 76 | 1021.2 |
| 20260502051012 | 23 | 248 | 0.0 | 4.8 | 0.00 | 0.00 | 0.00 | 76 | 1021.3 |
| 20260502050914 | 23 | 248 | 0.0 | 4.8 | 0.00 | 0.00 | 0.00 | 76 | 1021.3 |
| 20260502050817 | 23 | 248 | 0.0 | 4.8 | 0.00 | 0.00 | 0.00 | 76 | 1021.3 |
| 20260502050704 | 23 | 248 | 0.0 | 4.8 | 0.00 | 0.00 | 0.00 | 76 | 1021.3 |
| 20260502050608 | 23 | 248 | 0.0 | 4.8 | 0.00 | 0.00 | 0.00 | 76 | 1021.3 |
| 20260502050512 | 23 | 248 | 0.0 | 4.8 | 0.00 | 0.00 | 0.00 | 76 | 1021.3 |
| 20260502050416 | 23 | 248 | 1.6 | 4.8 | 0.00 | 0.00 | 0.00 | 76 | 1021.3 |
| 20260502050340 | 23 | 248 | 1.6 | 4.8 | 0.00 | 0.00 | 0.00 | 76 | 1021.3 |
| 20260502050242 | 23 | 248 | 3.2 | 4.8 | 0.00 | 0.00 | 0.00 | 76 | 1021.3 |
| 20260502050123 | 23 | 248 | 3.2 | 4.8 | 0.00 | 0.00 | 0.00 | 75 | 1021.4 |
| 20260502050005 | 23 | 259 | 1.6 | 3.2 | 0.00 | 0.00 | 0.00 | 75 | 1021.4 |
| 20260502045906 | 23 | 259 | 1.6 | 3.2 | 0.00 | 0.00 | 0.00 | 75 | 1021.4 |
| 20260502045808 | 23 | 259 | 1.6 | 3.2 | 0.00 | 0.00 | 0.00 | 75 | 1021.4 |
| 20260502045710 | 23 | 259 | 1.6 | 3.2 | 0.00 | 0.00 | 0.00 | 75 | 1021.4 |
| 20260502045613 | 23 | 259 | 0.0 | 3.2 | 0.00 | 0.00 | 0.00 | 75 | 1021.3 |
| 20260502045516 | 23 | 259 | 0.0 | 0.0 | 0.00 | 0.00 | 0.00 | 75 | 1021.4 |
| 20260502045423 | 23 | 259 | 0.0 | 0.0 | 0.00 | 0.00 | 0.00 | 75 | 1021.3 |
| 20260502045306 | 23 | 259 | 0.0 | 4.8 | 0.00 | 0.00 | 0.00 | 75 | 1021.3 |
| 20260502045227 | 23 | 259 | 0.0 | 4.8 | 0.00 | 0.00 | 0.00 | 75 | 1021.3 |
| 20260502045129 | 23 | 259 | 0.0 | 4.8 | 0.00 | 0.00 | 0.00 | 74 | 1021.3 |
| 20260502045030 | 23 | 259 | 0.0 | 4.8 | 0.00 | 0.00 | 0.00 | 74 | 1021.3 |
| 20260502044913 | 23 | 259 | 0.0 | 4.8 | 0.00 | 0.00 | 0.00 | 75 | 1021.2 |
| 20260502044815 | 23 | 259 | 0.0 | 4.8 | 0.00 | 0.00 | 0.00 | 75 | 1021.2 |
| 20260502044717 | 23 | 259 | 0.0 | 4.8 | 0.00 | 0.00 | 0.00 | 75 | 1021.2 |
| 20260502044622 | 23 | 259 | 1.6 | 4.8 | 0.00 | 0.00 | 0.00 | 75 | 1021.2 |
| 20260502044523 | 23 | 259 | 1.6 | 4.8 | 0.00 | 0.00 | 0.00 | 75 | 1021.2 |
| 20260502044426 | 23 | 259 | 1.6 | 4.8 | 0.00 | 0.00 | 0.00 | 75 | 1021.3 |
| 20260502044308 | 23 | 259 | 1.6 | 4.8 | 0.00 | 0.00 | 0.00 | 75 | 1021.3 |
| 20260502044209 | 23 | 260 | 1.6 | 4.8 | 0.00 | 0.00 | 0.00 | 75 | 1021.3 |
| 20260502044130 | 23 | 259 | 1.6 | 4.8 | 0.00 | 0.00 | 0.00 | 75 | 1021.3 |
| 20260502044009 | 23 | 259 | 1.6 | 4.8 | 0.00 | 0.00 | 0.00 | 75 | 1021.3 |
| 20260502043935 | 23 | 259 | 1.6 | 4.8 | 0.00 | 0.00 | 0.00 | 75 | 1021.3 |
| 20260502043816 | 23 | 259 | 3.2 | 4.8 | 0.00 | 0.00 | 0.00 | 75 | 1021.3 |
| 20260502043718 | 23 | 259 | 3.2 | 4.8 | 0.00 | 0.00 | 0.00 | 75 | 1021.3 |
| 20260502043623 | 23 | 233 | 3.2 | 4.8 | 0.00 | 0.00 | 0.00 | 75 | 1021.4 |
| 20260502043505 | 23 | 233 | 1.6 | 4.8 | 0.00 | 0.00 | 0.00 | 75 | 1021.3 |
| 20260502043428 | 23 | 233 | 1.6 | 4.8 | 0.00 | 0.00 | 0.00 | 75 | 1021.3 |
| 20260502043330 | 23 | 233 | 1.6 | 4.8 | 0.00 | 0.00 | 0.00 | 75 | 1021.3 |
| 20260502043215 | 23 | 233 | 3.2 | 4.8 | 0.00 | 0.00 | 0.00 | 75 | 1021.4 |
| 20260502043115 | 23 | 233 | 3.2 | 9.7 | 0.00 | 0.00 | 0.00 | 76 | 1021.3 |
| 20260502043015 | 23 | 234 | 1.6 | 9.7 | 0.00 | 0.00 | 0.00 | 76 | 1021.3 |
| 20260502042918 | 23 | 233 | 3.2 | 9.7 | 0.00 | 0.00 | 0.00 | 76 | 1021.3 |
| 20260502042820 | 23 | 234 | 3.2 | 9.7 | 0.00 | 0.00 | 0.00 | 76 | 1021.3 |
| 20260502042723 | 23 | 234 | 1.6 | 9.7 | 0.00 | 0.00 | 0.00 | 76 | 1021.2 |
| 20260502042623 | 23 | 274 | 3.2 | 9.7 | 0.00 | 0.00 | 0.00 | 76 | 1021.3 |
| 20260502042509 | 23 | 275 | 3.2 | 9.7 | 0.00 | 0.00 | 0.00 | 76 | 1021.3 |
| 20260502042411 | 23 | 277 | 3.2 | 9.7 | 0.00 | 0.00 | 0.00 | 76 | 1021.3 |
| 20260502042314 | 23 | 279 | 4.8 | 14.5 | 0.00 | 0.00 | 0.00 | 77 | 1021.4 |
| 20260502042216 | 23 | 226 | 3.2 | 14.5 | 0.00 | 0.00 | 0.00 | 77 | 1021.4 |
| 20260502042117 | 23 | 275 | 3.2 | 14.5 | 0.00 | 0.00 | 0.00 | 77 | 1021.4 |
| 20260502042041 | 23 | 293 | 3.2 | 14.5 | 0.00 | 0.00 | 0.00 | 77 | 1021.4 |
| 20260502041942 | 23 | 270 | 3.2 | 14.5 | 0.00 | 0.00 | 0.00 | 78 | 1021.4 |
| 20260502041808 | 23 | 262 | 3.2 | 14.5 | 0.00 | 0.00 | 0.00 | 78 | 1021.4 |
| 20260502041709 | 23 | 254 | 4.8 | 14.5 | 0.00 | 0.00 | 0.00 | 78 | 1021.4 |
| 20260502041612 | 23 | 255 | 6.4 | 14.5 | 0.00 | 0.00 | 0.00 | 78 | 1021.5 |
| 20260502041514 | 23 | 252 | 4.8 | 14.5 | 0.00 | 0.00 | 0.00 | 78 | 1021.4 |
| 20260502041417 | 23 | 262 | 3.2 | 8.0 | 0.00 | 0.00 | 0.00 | 78 | 1021.4 |
| 20260502041318 | 23 | 250 | 3.2 | 8.0 | 0.00 | 0.00 | 0.00 | 78 | 1021.5 |
| 20260502041220 | 23 | 250 | 4.8 | 8.0 | 0.00 | 0.00 | 0.00 | 78 | 1021.4 |
| 20260502041127 | 23 | 235 | 4.8 | 8.0 | 0.00 | 0.00 | 0.00 | 79 | 1021.6 |
| 20260502041007 | 23 | 230 | 4.8 | 8.0 | 0.00 | 0.00 | 0.00 | 79 | 1021.5 |
| 20260502040909 | 23 | 239 | 4.8 | 9.7 | 0.00 | 0.00 | 0.00 | 79 | 1021.4 |
| 20260502040809 | 23 | 237 | 4.8 | 9.7 | 0.00 | 0.00 | 0.00 | 79 | 1021.5 |
| 20260502040711 | 23 | 294 | 4.8 | 9.7 | 0.00 | 0.00 | 0.00 | 79 | 1021.4 |
| 20260502040615 | 23 | 282 | 3.2 | 9.7 | 0.00 | 0.00 | 0.00 | 79 | 1021.6 |
| 20260502040517 | 23 | 259 | 3.2 | 9.7 | 0.00 | 0.00 | 0.00 | 79 | 1021.6 |
| 20260502040444 | 23 | 259 | 3.2 | 9.7 | 0.00 | 0.00 | 0.00 | 79 | 1021.6 |
| 20260502040345 | 23 | 259 | 3.2 | 9.7 | 0.00 | 0.00 | 0.00 | 79 | 1021.6 |
| 20260502040207 | 23 | 217 | 4.8 | 11.3 | 0.00 | 0.00 | 0.00 | 79 | 1021.6 |
| 20260502040108 | 23 | 259 | 4.8 | 11.3 | 0.00 | 0.00 | 0.00 | 79 | 1021.6 |
| 20260502040009 | 23 | 254 | 3.2 | 11.3 | 0.00 | 0.00 | 0.00 | 79 | 1021.7 |
| 20260502035910 | 23 | 271 | 3.2 | 11.3 | 0.00 | 0.00 | 0.00 | 79 | 1021.6 |
| 20260502035811 | 23 | 271 | 4.8 | 11.3 | 0.00 | 0.00 | 0.00 | 79 | 1021.7 |
| 20260502035715 | 23 | 234 | 4.8 | 11.3 | 0.00 | 0.00 | 0.00 | 79 | 1021.8 |
| 20260502035636 | 23 | 261 | 4.8 | 11.3 | 0.00 | 0.00 | 0.00 | 79 | 1021.7 |
| 20260502035522 | 23 | 279 | 6.4 | 11.3 | 0.00 | 0.00 | 0.00 | 79 | 1021.6 |
| 20260502035424 | 23 | 253 | 4.8 | 11.3 | 0.00 | 0.00 | 0.00 | 79 | 1021.7 |
| 20260502035306 | 23 | 265 | 4.8 | 8.0 | 0.00 | 0.00 | 0.00 | 79 | 1021.7 |
| 20260502035207 | 23 | 286 | 4.8 | 8.0 | 0.00 | 0.00 | 0.00 | 79 | 1021.7 |
| 20260502035108 | 23 | 285 | 4.8 | 8.0 | 0.00 | 0.00 | 0.00 | 79 | 1021.6 |
| 20260502035030 | 23 | 232 | 3.2 | 8.0 | 0.00 | 0.00 | 0.00 | 79 | 1021.6 |
| 20260502034931 | 23 | 228 | 1.6 | 9.7 | 0.00 | 0.00 | 0.00 | 79 | 1021.6 |
| 20260502034816 | 23 | 273 | 1.6 | 11.3 | 0.00 | 0.00 | 0.00 | 79 | 1021.8 |
| 20260502034716 | 23 | 268 | 3.2 | 11.3 | 0.00 | 0.00 | 0.00 | 79 | 1021.7 |
| 20260502034617 | 23 | 268 | 4.8 | 11.3 | 0.00 | 0.00 | 0.00 | 79 | 1021.8 |
| 20260502034519 | 23 | 261 | 3.2 | 11.3 | 0.00 | 0.00 | 0.00 | 79 | 1021.8 |
| 20260502034421 | 23 | 262 | 3.2 | 11.3 | 0.00 | 0.00 | 0.00 | 79 | 1021.7 |
| 20260502034323 | 23 | 279 | 3.2 | 11.3 | 0.00 | 0.00 | 0.00 | 79 | 1021.6 |
| 20260502034205 | 23 | 278 | 4.8 | 11.3 | 0.00 | 0.00 | 0.00 | 79 | 1021.7 |
| 20260502034110 | 23 | 252 | 3.2 | 11.3 | 0.00 | 0.00 | 0.00 | 79 | 1021.7 |
| 20260502034012 | 23 | 250 | 3.2 | 11.3 | 0.00 | 0.00 | 0.00 | 79 | 1021.7 |
| 20260502033916 | 23 | 256 | 3.2 | 6.4 | 0.00 | 0.00 | 0.00 | 79 | 1021.8 |
| 20260502033817 | 23 | 257 | 3.2 | 6.4 | 0.00 | 0.00 | 0.00 | 79 | 1021.8 |
| 20260502033738 | 23 | 251 | 3.2 | 6.4 | 0.00 | 0.00 | 0.00 | 79 | 1021.8 |
| 20260502033622 | 23 | 250 | 3.2 | 6.4 | 0.00 | 0.00 | 0.00 | 79 | 1021.8 |
| 20260502033522 | 23 | 250 | 1.6 | 9.7 | 0.00 | 0.00 | 0.00 | 79 | 1021.7 |
| 20260502033407 | 23 | 254 | 1.6 | 9.7 | 0.00 | 0.00 | 0.00 | 79 | 1021.8 |
| 20260502033309 | 23 | 255 | 1.6 | 9.7 | 0.00 | 0.00 | 0.00 | 79 | 1021.8 |
| 20260502033210 | 23 | 234 | 3.2 | 9.7 | 0.00 | 0.00 | 0.00 | 79 | 1021.7 |
| 20260502033132 | 23 | 235 | 3.2 | 9.7 | 0.00 | 0.00 | 0.00 | 79 | 1021.8 |
| 20260502033035 | 23 | 235 | 1.6 | 9.7 | 0.00 | 0.00 | 0.00 | 79 | 1021.7 |
| 20260502032936 | 23 | 225 | 1.6 | 11.3 | 0.00 | 0.00 | 0.00 | 79 | 1021.8 |
| 20260502032839 | 23 | 226 | 3.2 | 11.3 | 0.00 | 0.00 | 0.00 | 79 | 1021.8 |
| 20260502032740 | 23 | 267 | 3.2 | 11.3 | 0.00 | 0.00 | 0.00 | 79 | 1021.7 |
| 20260502032641 | 23 | 269 | 3.2 | 11.3 | 0.00 | 0.00 | 0.00 | 79 | 1021.8 |
| 20260502032542 | 23 | 245 | 3.2 | 11.3 | 0.00 | 0.00 | 0.00 | 79 | 1021.6 |
| 20260502032408 | 23 | 253 | 3.2 | 11.3 | 0.00 | 0.00 | 0.00 | 79 | 1021.6 |
| 20260502032311 | 23 | 258 | 4.8 | 12.9 | 0.00 | 0.00 | 0.00 | 79 | 1021.6 |
| 20260502032213 | 23 | 277 | 4.8 | 12.9 | 0.00 | 0.00 | 0.00 | 79 | 1021.7 |
| 20260502032113 | 23 | 275 | 3.2 | 12.9 | 0.00 | 0.00 | 0.00 | 79 | 1021.6 |
| 20260502032017 | 23 | 227 | 3.2 | 12.9 | 0.00 | 0.00 | 0.00 | 79 | 1021.5 |
| 20260502031938 | 23 | 234 | 3.2 | 12.9 | 0.00 | 0.00 | 0.00 | 79 | 1021.4 |
| 20260502031838 | 23 | 234 | 4.8 | 12.9 | 0.00 | 0.00 | 0.00 | 79 | 1021.4 |
| 20260502031740 | 23 | 251 | 3.2 | 12.9 | 0.00 | 0.00 | 0.00 | 79 | 1021.6 |
| 20260502031624 | 23 | 271 | 4.8 | 12.9 | 0.00 | 0.00 | 0.00 | 78 | 1021.5 |
| 20260502031524 | 23 | 269 | 6.4 | 12.9 | 0.00 | 0.00 | 0.00 | 79 | 1021.5 |
| 20260502031405 | 23 | 275 | 4.8 | 12.9 | 0.00 | 0.00 | 0.00 | 78 | 1021.4 |
| 20260502031306 | 23 | 267 | 3.2 | 6.4 | 0.00 | 0.00 | 0.00 | 78 | 1021.4 |
| 20260502031209 | 23 | 271 | 3.2 | 8.0 | 0.00 | 0.00 | 0.00 | 78 | 1021.5 |
| 20260502031110 | 23 | 253 | 3.2 | 8.0 | 0.00 | 0.00 | 0.00 | 78 | 1021.4 |
| 20260502031011 | 23 | 253 | 3.2 | 8.0 | 0.00 | 0.00 | 0.00 | 78 | 1021.5 |
| 20260502030919 | 23 | 259 | 3.2 | 8.0 | 0.00 | 0.00 | 0.00 | 78 | 1021.4 |
| 20260502030842 | 23 | 256 | 3.2 | 8.0 | 0.00 | 0.00 | 0.00 | 78 | 1021.4 |
| 20260502030722 | 23 | 263 | 1.6 | 8.0 | 0.00 | 0.00 | 0.00 | 78 | 1021.3 |
| 20260502030644 | 23 | 263 | 3.2 | 8.0 | 0.00 | 0.00 | 0.00 | 78 | 1021.3 |
| 20260502030504 | 23 | 263 | 3.2 | 8.0 | 0.00 | 0.00 | 0.00 | 78 | 1021.3 |
| 20260502030407 | 23 | 280 | 4.8 | 8.0 | 0.00 | 0.00 | 0.00 | 78 | 1021.3 |
| 20260502030310 | 23 | 218 | 4.8 | 9.7 | 0.00 | 0.00 | 0.00 | 78 | 1021.3 |
| 20260502030211 | 23 | 266 | 4.8 | 9.7 | 0.00 | 0.00 | 0.00 | 78 | 1021.2 |
| 20260502030115 | 23 | 262 | 4.8 | 9.7 | 0.00 | 0.00 | 0.00 | 78 | 1021.2 |
| 20260502030017 | 23 | 265 | 3.2 | 9.7 | 0.00 | 0.00 | 0.00 | 78 | 1021.2 |
| 20260502025915 | 23 | 236 | 3.2 | 9.7 | 0.00 | 0.00 | 0.00 | 78 | 1021.2 |
| 20260502025818 | 23 | 240 | 3.2 | 9.7 | 0.00 | 0.00 | 0.00 | 78 | 1021.2 |
| 20260502025720 | 23 | 266 | 3.2 | 9.7 | 0.00 | 0.00 | 0.00 | 78 | 1021.2 |
| 20260502025622 | 23 | 266 | 3.2 | 12.9 | 0.00 | 0.00 | 0.00 | 78 | 1021.2 |
| 20260502025524 | 23 | 266 | 3.2 | 12.9 | 0.00 | 0.00 | 0.00 | 78 | 1021.2 |
| 20260502025411 | 23 | 271 | 3.2 | 12.9 | 0.00 | 0.00 | 0.00 | 78 | 1021.2 |
| 20260502025334 | 23 | 285 | 4.8 | 12.9 | 0.00 | 0.00 | 0.00 | 78 | 1021.1 |
| 20260502025234 | 23 | 262 | 4.8 | 12.9 | 0.00 | 0.00 | 0.00 | 78 | 1021.1 |
| 20260502025115 | 23 | 212 | 4.8 | 12.9 | 0.00 | 0.00 | 0.00 | 78 | 1021.0 |
| 20260502025016 | 23 | 242 | 4.8 | 12.9 | 0.00 | 0.00 | 0.00 | 78 | 1021.0 |
| 20260502024938 | 23 | 258 | 4.8 | 12.9 | 0.00 | 0.00 | 0.00 | 79 | 1021.1 |
| 20260502024817 | 23 | 280 | 6.4 | 12.9 | 0.00 | 0.00 | 0.00 | 79 | 1020.9 |
| 20260502024717 | 23 | 261 | 4.8 | 12.9 | 0.00 | 0.00 | 0.00 | 79 | 1020.8 |
| 20260502024618 | 23 | 271 | 4.8 | 12.9 | 0.00 | 0.00 | 0.00 | 79 | 1020.8 |
| 20260502024505 | 23 | 227 | 6.4 | 12.9 | 0.00 | 0.00 | 0.00 | 79 | 1020.9 |
| 20260502024408 | 23 | 261 | 6.4 | 12.9 | 0.00 | 0.00 | 0.00 | 79 | 1020.7 |
| 20260502024308 | 23 | 230 | 4.8 | 12.9 | 0.00 | 0.00 | 0.00 | 79 | 1020.7 |
| 20260502024210 | 23 | 289 | 4.8 | 11.3 | 0.00 | 0.00 | 0.00 | 79 | 1020.7 |
| 20260502024111 | 23 | 253 | 4.8 | 14.5 | 0.00 | 0.00 | 0.00 | 79 | 1020.6 |
| 20260502024013 | 23 | 238 | 6.4 | 14.5 | 0.00 | 0.00 | 0.00 | 79 | 1020.7 |
| 20260502023921 | 23 | 238 | 6.4 | 14.5 | 0.00 | 0.00 | 0.00 | 79 | 1020.7 |
| 20260502023841 | 23 | 249 | 6.4 | 14.5 | 0.00 | 0.00 | 0.00 | 79 | 1020.6 |
| 20260502023743 | 23 | 312 | 6.4 | 14.5 | 0.00 | 0.00 | 0.00 | 79 | 1020.5 |
| 20260502023645 | 23 | 271 | 6.4 | 14.5 | 0.00 | 0.00 | 0.00 | 79 | 1020.5 |
| 20260502023505 | 23 | 222 | 6.4 | 24.1 | 0.00 | 0.00 | 0.00 | 79 | 1020.3 |
| 20260502023407 | 23 | 244 | 6.4 | 24.1 | 0.00 | 0.00 | 0.00 | 79 | 1020.3 |
| 20260502023308 | 23 | 218 | 6.4 | 24.1 | 0.00 | 0.00 | 0.00 | 79 | 1020.4 |
| 20260502023210 | 23 | 204 | 8.0 | 24.1 | 0.00 | 0.00 | 0.00 | 79 | 1020.3 |
| 20260502023118 | 23 | 244 | 6.4 | 24.1 | 0.00 | 0.00 | 0.00 | 79 | 1020.4 |
| 20260502023018 | 23 | 263 | 8.0 | 24.1 | 0.00 | 0.00 | 0.00 | 79 | 1020.3 |
| 20260502022940 | 23 | 224 | 8.0 | 24.1 | 0.00 | 0.00 | 0.00 | 79 | 1020.2 |
| 20260502022821 | 23 | 291 | 8.0 | 24.1 | 0.00 | 0.00 | 0.00 | 79 | 1020.2 |
| 20260502022704 | 23 | 271 | 9.7 | 24.1 | 0.00 | 0.00 | 0.00 | 80 | 1020.3 |
| 20260502022608 | 23 | 277 | 9.7 | 24.1 | 0.00 | 0.00 | 0.00 | 80 | 1020.3 |
| 20260502022511 | 23 | 232 | 6.4 | 17.7 | 0.00 | 0.00 | 0.00 | 80 | 1020.1 |
| 20260502022417 | 23 | 265 | 6.4 | 17.7 | 0.00 | 0.00 | 0.00 | 80 | 1020.2 |
| 20260502022320 | 23 | 223 | 8.0 | 17.7 | 0.00 | 0.00 | 0.00 | 80 | 1020.2 |
| 20260502022223 | 23 | 236 | 8.0 | 17.7 | 0.00 | 0.00 | 0.00 | 80 | 1020.1 |
| 20260502022106 | 23 | 276 | 6.4 | 17.7 | 0.00 | 0.00 | 0.00 | 80 | 1020.2 |
| 20260502022007 | 23 | 268 | 6.4 | 17.7 | 0.00 | 0.00 | 0.00 | 80 | 1020.1 |
| 20260502021909 | 23 | 207 | 8.0 | 17.7 | 0.00 | 0.00 | 0.00 | 80 | 1020.1 |
| 20260502021811 | 23 | 255 | 8.0 | 17.7 | 0.00 | 0.00 | 0.00 | 80 | 1020.1 |
| 20260502021718 | 23 | 273 | 6.4 | 16.1 | 0.00 | 0.00 | 0.00 | 80 | 1020.1 |
| 20260502021618 | 23 | 278 | 8.0 | 16.1 | 0.00 | 0.00 | 0.00 | 80 | 1020.1 |
| 20260502021520 | 23 | 284 | 8.0 | 16.1 | 0.00 | 0.00 | 0.00 | 80 | 1020.1 |
| 20260502021419 | 23 | 258 | 6.4 | 17.7 | 0.00 | 0.00 | 0.00 | 80 | 1020.3 |
| 20260502021341 | 23 | 273 | 8.0 | 17.7 | 0.00 | 0.00 | 0.00 | 80 | 1020.2 |
| 20260502021242 | 23 | 265 | 9.7 | 17.7 | 0.00 | 0.00 | 0.00 | 80 | 1020.2 |
| 20260502021122 | 23 | 294 | 11.3 | 17.7 | 0.00 | 0.00 | 0.00 | 80 | 1020.2 |
| 20260502021023 | 23 | 234 | 9.7 | 17.7 | 0.00 | 0.00 | 0.00 | 80 | 1020.3 |
| 20260502020910 | 23 | 265 | 8.0 | 17.7 | 0.00 | 0.00 | 0.00 | 80 | 1020.3 |
| 20260502020811 | 23 | 314 | 8.0 | 17.7 | 0.00 | 0.00 | 0.00 | 80 | 1020.2 |
| 20260502020733 | 23 | 258 | 9.7 | 17.7 | 0.00 | 0.00 | 0.00 | 80 | 1020.2 |
| 20260502020636 | 23 | 271 | 9.7 | 17.7 | 0.00 | 0.00 | 0.00 | 80 | 1020.2 |
| 20260502020516 | 23 | 275 | 8.0 | 17.7 | 0.00 | 0.00 | 0.00 | 80 | 1020.3 |
| 20260502020417 | 23 | 273 | 8.0 | 17.7 | 0.00 | 0.00 | 0.00 | 80 | 1020.3 |
| 20260502020320 | 23 | 275 | 9.7 | 17.7 | 0.00 | 0.00 | 0.00 | 80 | 1020.2 |
| 20260502020208 | 23 | 277 | 9.7 | 17.7 | 0.00 | 0.00 | 0.00 | 80 | 1020.2 |
| 20260502020109 | 23 | 284 | 9.7 | 17.7 | 0.00 | 0.00 | 0.00 | 80 | 1020.2 |
| 20260502020012 | 23 | 273 | 11.3 | 17.7 | 0.00 | 0.00 | 0.00 | 80 | 1020.2 |
| 20260502015915 | 23 | 270 | 11.3 | 17.7 | 0.00 | 0.00 | 0.00 | 80 | 1020.3 |
| 20260502015817 | 23 | 261 | 11.3 | 17.7 | 0.00 | 0.00 | 0.00 | 80 | 1020.2 |
| 20260502015716 | 23 | 272 | 9.7 | 17.7 | 0.00 | 0.00 | 0.00 | 80 | 1020.2 |
| 20260502015619 | 23 | 281 | 9.7 | 17.7 | 0.00 | 0.00 | 0.00 | 80 | 1020.2 |
| 20260502015523 | 23 | 275 | 8.0 | 17.7 | 0.00 | 0.00 | 0.00 | 80 | 1020.3 |
| 20260502015425 | 23 | 286 | 8.0 | 17.7 | 0.00 | 0.00 | 0.00 | 80 | 1020.3 |
| 20260502015306 | 23 | 284 | 9.7 | 17.7 | 0.00 | 0.00 | 0.00 | 80 | 1020.2 |
| 20260502015208 | 23 | 271 | 9.7 | 17.7 | 0.00 | 0.00 | 0.00 | 80 | 1020.2 |
| 20260502015108 | 23 | 274 | 9.7 | 17.7 | 0.00 | 0.00 | 0.00 | 80 | 1020.3 |
| 20260502015009 | 24 | 236 | 9.7 | 17.7 | 0.00 | 0.00 | 0.00 | 80 | 1020.2 |
| 20260502014930 | 24 | 285 | 8.0 | 17.7 | 0.00 | 0.00 | 0.00 | 80 | 1020.1 |
| 20260502014832 | 24 | 286 | 8.0 | 17.7 | 0.00 | 0.00 | 0.00 | 80 | 1020.2 |
| 20260502014710 | 24 | 250 | 8.0 | 20.9 | 0.00 | 0.00 | 0.00 | 80 | 1020.2 |
| 20260502014614 | 24 | 273 | 6.4 | 20.9 | 0.00 | 0.00 | 0.00 | 79 | 1020.1 |
| 20260502014517 | 24 | 291 | 6.4 | 20.9 | 0.00 | 0.00 | 0.00 | 79 | 1020.2 |
| 20260502014420 | 24 | 279 | 9.7 | 20.9 | 0.00 | 0.00 | 0.00 | 79 | 1020.2 |
| 20260502014323 | 24 | 242 | 11.3 | 20.9 | 0.00 | 0.00 | 0.00 | 79 | 1020.2 |
| 20260502014222 | 24 | 280 | 9.7 | 20.9 | 0.00 | 0.00 | 0.00 | 79 | 1020.1 |
| 20260502014143 | 24 | 266 | 9.7 | 20.9 | 0.00 | 0.00 | 0.00 | 79 | 1020.1 |
| 20260502014044 | 24 | 277 | 11.3 | 20.9 | 0.00 | 0.00 | 0.00 | 79 | 1020.1 |
| 20260502013924 | 24 | 273 | 9.7 | 20.9 | 0.00 | 0.00 | 0.00 | 79 | 1019.9 |
| 20260502013808 | 24 | 300 | 4.8 | 20.9 | 0.00 | 0.00 | 0.00 | 79 | 1020.1 |
| 20260502013708 | 24 | 281 | 6.4 | 20.9 | 0.00 | 0.00 | 0.00 | 79 | 1019.9 |
| 20260502013609 | 24 | 261 | 8.0 | 20.9 | 0.00 | 0.00 | 0.00 | 79 | 1019.9 |
| 20260502013511 | 24 | 271 | 9.7 | 20.9 | 0.00 | 0.00 | 0.00 | 79 | 1019.8 |
| 20260502013412 | 24 | 281 | 12.9 | 20.9 | 0.00 | 0.00 | 0.00 | 79 | 1019.9 |
| 20260502013330 | 24 | 270 | 14.5 | 20.9 | 0.00 | 0.00 | 0.00 | 79 | 1019.9 |
| 20260502013231 | 24 | 284 | 11.3 | 20.9 | 0.00 | 0.00 | 0.00 | 79 | 1019.8 |
| 20260502013113 | 24 | 236 | 8.0 | 16.1 | 0.00 | 0.00 | 0.00 | 79 | 1019.9 |
| 20260502013017 | 24 | 278 | 9.7 | 16.1 | 0.00 | 0.00 | 0.00 | 79 | 1019.9 |
| 20260502012918 | 24 | 194 | 9.7 | 16.1 | 0.00 | 0.00 | 0.00 | 79 | 1019.8 |
| 20260502012824 | 24 | 274 | 8.0 | 16.1 | 0.00 | 0.00 | 0.00 | 79 | 1019.8 |
| 20260502012708 | 24 | 241 | 6.4 | 17.7 | 0.00 | 0.00 | 0.00 | 79 | 1019.8 |
| 20260502012609 | 24 | 227 | 4.8 | 17.7 | 0.00 | 0.00 | 0.00 | 79 | 1019.7 |
| 20260502012511 | 24 | 262 | 4.8 | 17.7 | 0.00 | 0.00 | 0.00 | 79 | 1019.7 |
| 20260502012413 | 24 | 238 | 6.4 | 17.7 | 0.00 | 0.00 | 0.00 | 79 | 1019.7 |
| 20260502012317 | 24 | 265 | 8.0 | 17.7 | 0.00 | 0.00 | 0.00 | 79 | 1019.8 |
| 20260502012242 | 24 | 278 | 9.7 | 17.7 | 0.00 | 0.00 | 0.00 | 78 | 1019.7 |
| 20260502012122 | 24 | 266 | 6.4 | 17.7 | 0.00 | 0.00 | 0.00 | 78 | 1019.6 |
| 20260502012023 | 24 | 298 | 8.0 | 17.7 | 0.00 | 0.00 | 0.00 | 78 | 1019.6 |
| 20260502011924 | 24 | 292 | 9.7 | 17.7 | 0.00 | 0.00 | 0.00 | 78 | 1019.6 |
| 20260502011805 | 24 | 270 | 6.4 | 16.1 | 0.00 | 0.00 | 0.00 | 78 | 1019.5 |
| 20260502011705 | 24 | 262 | 6.4 | 11.3 | 0.00 | 0.00 | 0.00 | 78 | 1019.5 |
| 20260502011605 | 24 | 271 | 6.4 | 11.3 | 0.00 | 0.00 | 0.00 | 78 | 1019.5 |
| 20260502011511 | 24 | 288 | 4.8 | 11.3 | 0.00 | 0.00 | 0.00 | 78 | 1019.4 |
| 20260502011434 | 24 | 257 | 8.0 | 11.3 | 0.00 | 0.00 | 0.00 | 78 | 1019.4 |
| 20260502011333 | 24 | 215 | 8.0 | 12.9 | 0.00 | 0.00 | 0.00 | 78 | 1019.4 |
| 20260502011215 | 24 | 254 | 8.0 | 12.9 | 0.00 | 0.00 | 0.00 | 78 | 1019.4 |
| 20260502011118 | 24 | 269 | 8.0 | 12.9 | 0.00 | 0.00 | 0.00 | 78 | 1019.4 |
| 20260502011021 | 24 | 250 | 8.0 | 12.9 | 0.00 | 0.00 | 0.00 | 78 | 1019.3 |
| 20260502010925 | 24 | 236 | 6.4 | 12.9 | 0.00 | 0.00 | 0.00 | 78 | 1019.3 |
| 20260502010811 | 24 | 241 | 6.4 | 16.1 | 0.00 | 0.00 | 0.00 | 78 | 1019.2 |
| 20260502010713 | 24 | 252 | 8.0 | 16.1 | 0.00 | 0.00 | 0.00 | 77 | 1019.3 |
| 20260502010614 | 24 | 265 | 6.4 | 16.1 | 0.00 | 0.00 | 0.00 | 77 | 1019.3 |
| 20260502010516 | 24 | 264 | 4.8 | 16.1 | 0.00 | 0.00 | 0.00 | 77 | 1019.2 |
| 20260502010420 | 24 | 285 | 4.8 | 17.7 | 0.00 | 0.00 | 0.00 | 77 | 1019.2 |
| 20260502010319 | 24 | 252 | 4.8 | 17.7 | 0.00 | 0.00 | 0.00 | 77 | 1019.1 |
| 20260502010223 | 24 | 286 | 4.8 | 17.7 | 0.00 | 0.00 | 0.00 | 77 | 1019.2 |
| 20260502010109 | 24 | 270 | 6.4 | 17.7 | 0.00 | 0.00 | 0.00 | 77 | 1019.1 |
| 20260502010011 | 24 | 282 | 6.4 | 17.7 | 0.00 | 0.00 | 0.00 | 77 | 1019.2 |
| 20260502005914 | 24 | 279 | 4.8 | 17.7 | 0.00 | 0.00 | 0.00 | 77 | 1019.2 |
| 20260502005816 | 24 | 288 | 6.4 | 17.7 | 0.00 | 0.00 | 0.00 | 77 | 1019.1 |
| 20260502005719 | 24 | 267 | 9.7 | 17.7 | 0.00 | 0.00 | 0.00 | 77 | 1019.2 |
| 20260502005640 | 24 | 290 | 9.7 | 17.7 | 0.00 | 0.00 | 0.00 | 77 | 1019.1 |
| 20260502005542 | 24 | 258 | 9.7 | 17.7 | 0.00 | 0.00 | 0.00 | 76 | 1019.1 |
| 20260502005406 | 24 | 279 | 11.3 | 17.7 | 0.00 | 0.00 | 0.00 | 76 | 1019.1 |
| 20260502005308 | 24 | 269 | 11.3 | 16.1 | 0.00 | 0.00 | 0.00 | 76 | 1019.0 |
| 20260502005209 | 25 | 197 | 11.3 | 17.7 | 0.00 | 0.00 | 0.00 | 76 | 1019.0 |
| 20260502005111 | 25 | 273 | 11.3 | 22.5 | 0.00 | 0.00 | 0.00 | 76 | 1019.1 |
| 20260502005011 | 25 | 243 | 8.0 | 22.5 | 0.00 | 0.00 | 0.00 | 76 | 1019.0 |
| 20260502004912 | 25 | 276 | 9.7 | 22.5 | 0.00 | 0.00 | 0.00 | 75 | 1019.2 |
| 20260502004814 | 25 | 199 | 9.7 | 22.5 | 0.00 | 0.00 | 0.00 | 75 | 1019.0 |
| 20260502004721 | 25 | 277 | 8.0 | 22.5 | 0.00 | 0.00 | 0.00 | 75 | 1019.1 |
| 20260502004644 | 25 | 303 | 8.0 | 22.5 | 0.00 | 0.00 | 0.00 | 75 | 1019.1 |
| 20260502004524 | 25 | 257 | 8.0 | 22.5 | 0.00 | 0.00 | 0.00 | 74 | 1019.0 |
| 20260502004406 | 25 | 224 | 8.0 | 22.5 | 0.00 | 0.00 | 0.00 | 74 | 1019.1 |
| 20260502004309 | 25 | 233 | 12.9 | 22.5 | 0.00 | 0.00 | 0.00 | 74 | 1019.1 |
| 20260502004209 | 25 | 259 | 12.9 | 22.5 | 0.00 | 0.00 | 0.00 | 74 | 1019.0 |
| 20260502004113 | 25 | 269 | 8.0 | 17.7 | 0.00 | 0.00 | 0.00 | 73 | 1019.0 |
| 20260502004019 | 25 | 273 | 6.4 | 16.1 | 0.00 | 0.00 | 0.00 | 73 | 1019.0 |
| 20260502003922 | 25 | 267 | 6.4 | 16.1 | 0.00 | 0.00 | 0.00 | 73 | 1019.0 |
| 20260502003824 | 25 | 229 | 8.0 | 16.1 | 0.00 | 0.00 | 0.00 | 73 | 1019.0 |
| 20260502003705 | 25 | 252 | 8.0 | 16.1 | 0.00 | 0.00 | 0.00 | 73 | 1019.0 |
| 20260502003607 | 25 | 217 | 8.0 | 16.1 | 0.00 | 0.00 | 0.00 | 73 | 1019.1 |
| 20260502003529 | 25 | 235 | 6.4 | 16.1 | 0.00 | 0.00 | 0.00 | 73 | 1019.0 |
| 20260502003430 | 25 | 250 | 6.4 | 16.1 | 0.00 | 0.00 | 0.00 | 72 | 1019.0 |
| 20260502003335 | 25 | 284 | 8.0 | 16.1 | 0.00 | 0.00 | 0.00 | 72 | 1019.0 |
| 20260502003235 | 25 | 233 | 9.7 | 16.1 | 0.00 | 0.00 | 0.00 | 72 | 1019.1 |
| 20260502003117 | 25 | 269 | 8.0 | 14.5 | 0.00 | 0.00 | 0.00 | 72 | 1019.0 |
| 20260502003039 | 25 | 175 | 6.4 | 17.7 | 0.00 | 0.00 | 0.00 | 72 | 1019.0 |
| 20260502002941 | 25 | 288 | 6.4 | 17.7 | 0.00 | 0.00 | 0.00 | 72 | 1019.0 |
| 20260502002822 | 25 | 224 | 4.8 | 17.7 | 0.00 | 0.00 | 0.00 | 72 | 1019.0 |
| 20260502002723 | 25 | 247 | 6.4 | 17.7 | 0.00 | 0.00 | 0.00 | 72 | 1018.9 |
| 20260502002624 | 25 | 294 | 8.0 | 20.9 | 0.00 | 0.00 | 0.00 | 72 | 1018.9 |
| 20260502002544 | 25 | 219 | 6.4 | 20.9 | 0.00 | 0.00 | 0.00 | 71 | 1018.9 |
| 20260502002405 | 25 | 224 | 8.0 | 20.9 | 0.00 | 0.00 | 0.00 | 71 | 1018.9 |
| 20260502002310 | 25 | 228 | 9.7 | 20.9 | 0.00 | 0.00 | 0.00 | 71 | 1019.0 |
| 20260502002211 | 25 | 265 | 8.0 | 20.9 | 0.00 | 0.00 | 0.00 | 71 | 1018.9 |
| 20260502002112 | 25 | 286 | 8.0 | 20.9 | 0.00 | 0.00 | 0.00 | 71 | 1018.9 |
| 20260502002013 | 25 | 250 | 9.7 | 20.9 | 0.00 | 0.00 | 0.00 | 71 | 1018.9 |
| 20260502001915 | 25 | 277 | 9.7 | 20.9 | 0.00 | 0.00 | 0.00 | 70 | 1018.9 |
| 20260502001817 | 25 | 229 | 8.0 | 20.9 | 0.00 | 0.00 | 0.00 | 70 | 1018.8 |
| 20260502001718 | 25 | 254 | 8.0 | 19.3 | 0.00 | 0.00 | 0.00 | 70 | 1018.9 |
| 20260502001645 | 25 | 246 | 9.7 | 19.3 | 0.00 | 0.00 | 0.00 | 70 | 1018.9 |
| 20260502001546 | 25 | 234 | 9.7 | 19.3 | 0.00 | 0.00 | 0.00 | 70 | 1019.0 |
| 20260502001406 | 25 | 319 | 9.7 | 19.3 | 0.00 | 0.00 | 0.00 | 70 | 1018.9 |
| 20260502001308 | 25 | 250 | 11.3 | 22.5 | 0.00 | 0.00 | 0.00 | 70 | 1018.8 |
| 20260502001208 | 25 | 257 | 11.3 | 22.5 | 0.00 | 0.00 | 0.00 | 69 | 1018.7 |
| 20260502001109 | 25 | 239 | 11.3 | 22.5 | 0.00 | 0.00 | 0.00 | 69 | 1018.7 |
| 20260502001009 | 25 | 274 | 9.7 | 22.5 | 0.00 | 0.00 | 0.00 | 69 | 1018.7 |
| 20260502000917 | 25 | 199 | 8.0 | 22.5 | 0.00 | 0.00 | 0.00 | 69 | 1018.7 |
| 20260502000820 | 25 | 232 | 8.0 | 22.5 | 0.00 | 0.00 | 0.00 | 69 | 1018.7 |
| 20260502000721 | 25 | 267 | 8.0 | 22.5 | 0.00 | 0.00 | 0.00 | 68 | 1018.6 |
| 20260502000624 | 25 | 292 | 9.7 | 22.5 | 0.00 | 0.00 | 0.00 | 68 | 1018.7 |
| 20260502000505 | 25 | 248 | 11.3 | 22.5 | 0.00 | 0.00 | 0.00 | 68 | 1018.7 |
| 20260502000409 | 25 | 237 | 11.3 | 22.5 | 0.00 | 0.00 | 0.00 | 68 | 1018.7 |
| 20260502000317 | 25 | 235 | 11.3 | 19.3 | 0.00 | 0.00 | 0.00 | 68 | 1018.6 |
| 20260502000218 | 26 | 294 | 9.7 | 19.3 | 0.00 | 0.00 | 0.00 | 68 | 1018.6 |
| 20260502000118 | 26 | 205 | 9.7 | 19.3 | 0.00 | 0.00 | 0.00 | 67 | 1018.5 |
| 20260502000020 | 26 | 232 | 11.3 | 19.3 | 0.00 | 0.00 | 0.00 | 67 | 1018.5 |
| 20260501235923 | 26 | 225 | 9.7 | 19.3 | 0.00 | 0.00 | 0.00 | 67 | 1018.5 |
| 20260501235807 | 26 | 245 | 9.7 | 19.3 | 0.00 | 0.00 | 0.00 | 67 | 1018.5 |
| 20260501235713 | 26 | 276 | 11.3 | 19.3 | 0.00 | 0.00 | 0.00 | 67 | 1018.5 |
| 20260501235617 | 26 | 227 | 9.7 | 27.4 | 0.00 | 0.00 | 0.00 | 67 | 1018.5 |
| 20260501235518 | 26 | 267 | 11.3 | 27.4 | 0.00 | 0.00 | 0.00 | 67 | 1018.4 |
| 20260501235417 | 26 | 267 | 9.7 | 27.4 | 0.00 | 0.00 | 0.00 | 67 | 1018.2 |
| 20260501235318 | 26 | 250 | 8.0 | 27.4 | 0.00 | 0.00 | 0.00 | 67 | 1018.3 |
| 20260501235221 | 26 | 273 | 8.0 | 27.4 | 0.00 | 0.00 | 0.00 | 67 | 1018.3 |
| 20260501235124 | 26 | 319 | 9.7 | 27.4 | 0.00 | 0.00 | 0.00 | 67 | 1018.2 |
| 20260501235011 | 26 | 221 | 11.3 | 27.4 | 0.00 | 0.00 | 0.00 | 67 | 1018.2 |
| 20260501234912 | 26 | 257 | 12.9 | 27.4 | 0.00 | 0.00 | 0.00 | 67 | 1018.3 |
| 20260501234813 | 26 | 279 | 12.9 | 27.4 | 0.00 | 0.00 | 0.00 | 67 | 1018.3 |
| 20260501234714 | 26 | 251 | 8.0 | 22.5 | 0.00 | 0.00 | 0.00 | 67 | 1018.2 |
| 20260501234617 | 26 | 262 | 9.7 | 22.5 | 0.00 | 0.00 | 0.00 | 67 | 1018.2 |
| 20260501234518 | 26 | 274 | 11.3 | 22.5 | 0.00 | 0.00 | 0.00 | 67 | 1018.3 |
| 20260501234418 | 26 | 294 | 8.0 | 22.5 | 0.00 | 0.00 | 0.00 | 67 | 1018.1 |
| 20260501234304 | 26 | 239 | 6.4 | 22.5 | 0.00 | 0.00 | 0.00 | 66 | 1018.2 |
| 20260501234225 | 26 | 321 | 8.0 | 22.5 | 0.00 | 0.00 | 0.00 | 66 | 1018.2 |
| 20260501234126 | 26 | 240 | 9.7 | 22.5 | 0.00 | 0.00 | 0.00 | 66 | 1018.2 |
| 20260501234028 | 26 | 285 | 8.0 | 19.3 | 0.00 | 0.00 | 0.00 | 66 | 1018.2 |
| 20260501233907 | 26 | 217 | 9.7 | 19.3 | 0.00 | 0.00 | 0.00 | 66 | 1018.2 |
| 20260501233808 | 26 | 261 | 11.3 | 19.3 | 0.00 | 0.00 | 0.00 | 65 | 1018.1 |
| 20260501233710 | 26 | 276 | 9.7 | 16.1 | 0.00 | 0.00 | 0.00 | 65 | 1018.2 |
| 20260501233611 | 26 | 257 | 8.0 | 16.1 | 0.00 | 0.00 | 0.00 | 65 | 1018.0 |
| 20260501233535 | 26 | 270 | 8.0 | 16.1 | 0.00 | 0.00 | 0.00 | 65 | 1018.1 |
| 20260501233414 | 26 | 271 | 8.0 | 16.1 | 0.00 | 0.00 | 0.00 | 65 | 1018.0 |
| 20260501233314 | 26 | 228 | 9.7 | 16.1 | 0.00 | 0.00 | 0.00 | 65 | 1018.0 |
| 20260501233216 | 27 | 273 | 11.3 | 16.1 | 0.00 | 0.00 | 0.00 | 65 | 1018.1 |
| 20260501233137 | 27 | 271 | 9.7 | 14.5 | 0.00 | 0.00 | 0.00 | 64 | 1018.1 |
| 20260501233017 | 27 | 297 | 8.0 | 14.5 | 0.00 | 0.00 | 0.00 | 64 | 1017.9 |
| 20260501232918 | 27 | 265 | 8.0 | 14.5 | 0.00 | 0.00 | 0.00 | 64 | 1018.1 |
| 20260501232820 | 27 | 234 | 8.0 | 14.5 | 0.00 | 0.00 | 0.00 | 64 | 1017.9 |
| 20260501232705 | 27 | 302 | 4.8 | 16.1 | 0.00 | 0.00 | 0.00 | 64 | 1017.9 |
| 20260501232608 | 27 | 157 | 3.2 | 16.1 | 0.00 | 0.00 | 0.00 | 64 | 1017.9 |
| 20260501232507 | 27 | 168 | 6.4 | 16.1 | 0.00 | 0.00 | 0.00 | 64 | 1018.0 |
| 20260501232409 | 27 | 200 | 9.7 | 16.1 | 0.00 | 0.00 | 0.00 | 63 | 1017.9 |
| 20260501232312 | 27 | 259 | 8.0 | 16.1 | 0.00 | 0.00 | 0.00 | 63 | 1017.8 |
| 20260501232214 | 27 | 234 | 4.8 | 14.5 | 0.00 | 0.00 | 0.00 | 64 | 1017.9 |
| 20260501232117 | 27 | 297 | 4.8 | 14.5 | 0.00 | 0.00 | 0.00 | 64 | 1017.7 |
| 20260501232024 | 27 | 257 | 6.4 | 14.5 | 0.00 | 0.00 | 0.00 | 64 | 1017.8 |
| 20260501231906 | 27 | 273 | 8.0 | 14.5 | 0.00 | 0.00 | 0.00 | 64 | 1017.8 |
| 20260501231808 | 27 | 256 | 6.4 | 14.5 | 0.00 | 0.00 | 0.00 | 64 | 1017.8 |
| 20260501231730 | 27 | 277 | 6.4 | 14.5 | 0.00 | 0.00 | 0.00 | 64 | 1017.8 |
| 20260501231611 | 27 | 343 | 6.4 | 14.5 | 0.00 | 0.00 | 0.00 | 64 | 1017.8 |
| 20260501231512 | 27 | 298 | 4.8 | 14.5 | 0.00 | 0.00 | 0.00 | 65 | 1017.9 |
| 20260501231415 | 27 | 286 | 4.8 | 17.7 | 0.00 | 0.00 | 0.00 | 65 | 1017.7 |
| 20260501231320 | 27 | 212 | 6.4 | 17.7 | 0.00 | 0.00 | 0.00 | 64 | 1017.8 |
| 20260501231222 | 27 | 224 | 6.4 | 17.7 | 0.00 | 0.00 | 0.00 | 64 | 1017.7 |
| 20260501231124 | 27 | 231 | 6.4 | 17.7 | 0.00 | 0.00 | 0.00 | 65 | 1017.7 |
| 20260501231025 | 27 | 217 | 8.0 | 17.7 | 0.00 | 0.00 | 0.00 | 64 | 1017.7 |
| 20260501230905 | 27 | 172 | 6.4 | 17.7 | 0.00 | 0.00 | 0.00 | 64 | 1017.6 |
| 20260501230808 | 27 | 149 | 6.4 | 17.7 | 0.00 | 0.00 | 0.00 | 65 | 1017.6 |
| 20260501230732 | 27 | 242 | 9.7 | 17.7 | 0.00 | 0.00 | 0.00 | 65 | 1017.6 |
| 20260501230614 | 27 | 210 | 9.7 | 17.7 | 0.00 | 0.00 | 0.00 | 65 | 1017.6 |
| 20260501230516 | 27 | 250 | 8.0 | 16.1 | 0.00 | 0.00 | 0.00 | 65 | 1017.7 |
| 20260501230419 | 27 | 272 | 8.0 | 17.7 | 0.00 | 0.00 | 0.00 | 64 | 1017.7 |
| 20260501230321 | 27 | 178 | 6.4 | 17.7 | 0.00 | 0.00 | 0.00 | 65 | 1017.6 |
| 20260501230223 | 27 | 234 | 4.8 | 17.7 | 0.00 | 0.00 | 0.00 | 65 | 1017.6 |
| 20260501230110 | 27 | 273 | 4.8 | 17.7 | 0.00 | 0.00 | 0.00 | 65 | 1017.5 |
| 20260501230009 | 27 | 262 | 8.0 | 17.7 | 0.00 | 0.00 | 0.00 | 64 | 1017.7 |
| 20260501225910 | 27 | 286 | 9.7 | 17.7 | 0.00 | 0.00 | 0.00 | 64 | 1017.6 |
| 20260501225813 | 27 | 292 | 8.0 | 17.7 | 0.00 | 0.00 | 0.00 | 64 | 1017.6 |
| 20260501225735 | 27 | 207 | 8.0 | 17.7 | 0.00 | 0.00 | 0.00 | 64 | 1017.6 |
| 20260501225636 | 27 | 264 | 9.7 | 17.7 | 0.00 | 0.00 | 0.00 | 64 | 1017.5 |
| 20260501225516 | 27 | 204 | 8.0 | 17.7 | 0.00 | 0.00 | 0.00 | 63 | 1017.5 |
| 20260501225437 | 27 | 205 | 4.8 | 17.7 | 0.00 | 0.00 | 0.00 | 64 | 1017.5 |
| 20260501225318 | 27 | 292 | 4.8 | 17.7 | 0.00 | 0.00 | 0.00 | 64 | 1017.5 |
| 20260501225221 | 27 | 281 | 6.4 | 17.7 | 0.00 | 0.00 | 0.00 | 64 | 1017.5 |
| 20260501225143 | 27 | 257 | 8.0 | 17.7 | 0.00 | 0.00 | 0.00 | 64 | 1017.6 |
| 20260501225023 | 27 | 263 | 8.0 | 16.1 | 0.00 | 0.00 | 0.00 | 64 | 1017.4 |
| 20260501224924 | 27 | 294 | 4.8 | 17.7 | 0.00 | 0.00 | 0.00 | 64 | 1017.4 |
| 20260501224825 | 27 | 281 | 4.8 | 17.7 | 0.00 | 0.00 | 0.00 | 64 | 1017.4 |
| 20260501224706 | 27 | 227 | 6.4 | 17.7 | 0.00 | 0.00 | 0.00 | 63 | 1017.3 |
| 20260501224633 | 27 | 250 | 8.0 | 17.7 | 0.00 | 0.00 | 0.00 | 64 | 1017.2 |
| 20260501224513 | 27 | 281 | 8.0 | 17.7 | 0.00 | 0.00 | 0.00 | 64 | 1017.2 |
| 20260501224414 | 27 | 269 | 8.0 | 17.7 | 0.00 | 0.00 | 0.00 | 64 | 1017.2 |
| 20260501224315 | 27 | 213 | 6.4 | 17.7 | 0.00 | 0.00 | 0.00 | 63 | 1017.2 |
| 20260501224217 | 27 | 250 | 9.7 | 17.7 | 0.00 | 0.00 | 0.00 | 63 | 1017.3 |
| 20260501224118 | 27 | 211 | 9.7 | 22.5 | 0.00 | 0.00 | 0.00 | 63 | 1017.2 |
| 20260501224020 | 27 | 224 | 8.0 | 22.5 | 0.00 | 0.00 | 0.00 | 63 | 1017.1 |
| 20260501223906 | 27 | 295 | 8.0 | 22.5 | 0.00 | 0.00 | 0.00 | 63 | 1017.2 |
| 20260501223808 | 28 | 210 | 8.0 | 22.5 | 0.00 | 0.00 | 0.00 | 63 | 1017.2 |
| 20260501223712 | 28 | 200 | 6.4 | 22.5 | 0.00 | 0.00 | 0.00 | 62 | 1017.1 |
| 20260501223634 | 28 | 223 | 9.7 | 22.5 | 0.00 | 0.00 | 0.00 | 62 | 1017.2 |
| 20260501223515 | 28 | 198 | 11.3 | 22.5 | 0.00 | 0.00 | 0.00 | 62 | 1017.2 |
| 20260501223418 | 28 | 224 | 11.3 | 22.5 | 0.00 | 0.00 | 0.00 | 62 | 1017.0 |
| 20260501223320 | 28 | 259 | 6.4 | 22.5 | 0.00 | 0.00 | 0.00 | 62 | 1017.1 |
| 20260501223225 | 28 | 271 | 6.4 | 22.5 | 0.00 | 0.00 | 0.00 | 62 | 1017.1 |
| 20260501223124 | 28 | 302 | 9.7 | 22.5 | 0.00 | 0.00 | 0.00 | 62 | 1016.9 |
| 20260501223021 | 28 | 200 | 9.7 | 22.5 | 0.00 | 0.00 | 0.00 | 62 | 1016.9 |
| 20260501222922 | 28 | 255 | 9.7 | 17.7 | 0.00 | 0.00 | 0.00 | 62 | 1016.9 |
| 20260501222825 | 28 | 272 | 6.4 | 16.1 | 0.00 | 0.00 | 0.00 | 62 | 1016.9 |
| 20260501222725 | 28 | 245 | 3.2 | 16.1 | 0.00 | 0.00 | 0.00 | 62 | 1017.0 |
| 20260501222607 | 28 | 207 | 4.8 | 16.1 | 0.00 | 0.00 | 0.00 | 62 | 1017.1 |
| 20260501222510 | 28 | 197 | 6.4 | 16.1 | 0.00 | 0.00 | 0.00 | 62 | 1016.9 |
| 20260501222416 | 28 | 167 | 6.4 | 16.1 | 0.00 | 0.00 | 0.00 | 62 | 1017.2 |
| 20260501222317 | 28 | 239 | 8.0 | 16.1 | 0.00 | 0.00 | 0.00 | 62 | 1017.1 |
| 20260501222219 | 28 | 197 | 6.4 | 16.1 | 0.00 | 0.00 | 0.00 | 62 | 1017.0 |
| 20260501222140 | 28 | 252 | 4.8 | 16.1 | 0.00 | 0.00 | 0.00 | 63 | 1016.9 |
| 20260501222021 | 28 | 194 | 6.4 | 16.1 | 0.00 | 0.00 | 0.00 | 62 | 1017.0 |
| 20260501221925 | 28 | 237 | 8.0 | 16.1 | 0.00 | 0.00 | 0.00 | 62 | 1016.9 |
| 20260501221808 | 28 | 157 | 6.4 | 16.1 | 0.00 | 0.00 | 0.00 | 62 | 1017.0 |
| 20260501221713 | 28 | 277 | 6.4 | 16.1 | 0.00 | 0.00 | 0.00 | 62 | 1016.9 |
| 20260501221617 | 28 | 232 | 6.4 | 16.1 | 0.00 | 0.00 | 0.00 | 62 | 1016.9 |
| 20260501221540 | 28 | 179 | 4.8 | 16.1 | 0.00 | 0.00 | 0.00 | 62 | 1017.0 |
| 20260501221421 | 28 | 230 | 8.0 | 16.1 | 0.00 | 0.00 | 0.00 | 62 | 1016.9 |
| 20260501221324 | 28 | 202 | 6.4 | 16.1 | 0.00 | 0.00 | 0.00 | 62 | 1016.9 |
| 20260501221206 | 28 | 229 | 6.4 | 17.7 | 0.00 | 0.00 | 0.00 | 63 | 1016.9 |
| 20260501221130 | 28 | 300 | 6.4 | 17.7 | 0.00 | 0.00 | 0.00 | 63 | 1016.9 |
| 20260501221017 | 28 | 153 | 6.4 | 17.7 | 0.00 | 0.00 | 0.00 | 63 | 1016.9 |
| 20260501220921 | 28 | 243 | 8.0 | 17.7 | 0.00 | 0.00 | 0.00 | 62 | 1016.9 |
| 20260501220823 | 28 | 205 | 6.4 | 17.7 | 0.00 | 0.00 | 0.00 | 62 | 1016.9 |
| 20260501220706 | 28 | 190 | 8.0 | 16.1 | 0.00 | 0.00 | 0.00 | 63 | 1016.9 |
| 20260501220628 | 28 | 238 | 8.0 | 16.1 | 0.00 | 0.00 | 0.00 | 63 | 1016.8 |
| 20260501220508 | 28 | 236 | 8.0 | 16.1 | 0.00 | 0.00 | 0.00 | 64 | 1016.9 |
| 20260501220410 | 28 | 252 | 8.0 | 16.1 | 0.00 | 0.00 | 0.00 | 64 | 1016.9 |
| 20260501220332 | 28 | 213 | 6.4 | 16.1 | 0.00 | 0.00 | 0.00 | 63 | 1016.9 |
| 20260501220238 | 28 | 213 | 4.8 | 20.9 | 0.00 | 0.00 | 0.00 | 64 | 1016.9 |
| 20260501220120 | 28 | 136 | 4.8 | 20.9 | 0.00 | 0.00 | 0.00 | 64 | 1016.9 |
| 20260501220004 | 28 | 163 | 4.8 | 20.9 | 0.00 | 0.00 | 0.00 | 64 | 1016.9 |
| 20260501215906 | 28 | 198 | 6.4 | 20.9 | 0.00 | 0.00 | 0.00 | 64 | 1017.0 |
| 20260501215809 | 28 | 252 | 6.4 | 20.9 | 0.00 | 0.00 | 0.00 | 64 | 1016.9 |
| 20260501215732 | 28 | 221 | 8.0 | 20.9 | 0.00 | 0.00 | 0.00 | 64 | 1016.8 |
| 20260501215613 | 28 | 262 | 8.0 | 20.9 | 0.00 | 0.00 | 0.00 | 64 | 1016.9 |
| 20260501215520 | 28 | 244 | 8.0 | 20.9 | 0.00 | 0.00 | 0.00 | 64 | 1016.9 |
| 20260501215442 | 28 | 216 | 9.7 | 20.9 | 0.00 | 0.00 | 0.00 | 64 | 1016.9 |
| 20260501215323 | 28 | 232 | 9.7 | 19.3 | 0.00 | 0.00 | 0.00 | 63 | 1016.9 |
| 20260501215226 | 28 | 252 | 11.3 | 19.3 | 0.00 | 0.00 | 0.00 | 63 | 1017.0 |
| 20260501215107 | 28 | 242 | 9.7 | 19.3 | 0.00 | 0.00 | 0.00 | 63 | 1017.0 |
| 20260501215009 | 28 | 269 | 8.0 | 17.7 | 0.00 | 0.00 | 0.00 | 63 | 1016.9 |
| 20260501214910 | 28 | 212 | 8.0 | 14.5 | 0.00 | 0.00 | 0.00 | 63 | 1016.9 |
| 20260501214811 | 28 | 195 | 8.0 | 14.5 | 0.00 | 0.00 | 0.00 | 63 | 1017.0 |
| 20260501214717 | 28 | 259 | 8.0 | 14.5 | 0.00 | 0.00 | 0.00 | 62 | 1016.8 |
| 20260501214617 | 28 | 252 | 9.7 | 14.5 | 0.00 | 0.00 | 0.00 | 62 | 1016.9 |
| 20260501214519 | 28 | 207 | 8.0 | 14.5 | 0.00 | 0.00 | 0.00 | 62 | 1016.8 |
| 20260501214421 | 28 | 273 | 6.4 | 14.5 | 0.00 | 0.00 | 0.00 | 62 | 1016.9 |
| 20260501214324 | 28 | 240 | 6.4 | 14.5 | 0.00 | 0.00 | 0.00 | 62 | 1016.9 |
| 20260501214224 | 28 | 259 | 8.0 | 14.5 | 0.00 | 0.00 | 0.00 | 62 | 1016.9 |
| 20260501214127 | 28 | 249 | 8.0 | 16.1 | 0.00 | 0.00 | 0.00 | 62 | 1017.1 |
| 20260501214052 | 28 | 234 | 6.4 | 16.1 | 0.00 | 0.00 | 0.00 | 62 | 1017.1 |
| 20260501213932 | 28 | 246 | 8.0 | 19.3 | 0.00 | 0.00 | 0.00 | 62 | 1017.1 |
| 20260501213811 | 28 | 186 | 9.7 | 19.3 | 0.00 | 0.00 | 0.00 | 62 | 1017.1 |
| 20260501213713 | 28 | 221 | 9.7 | 19.3 | 0.00 | 0.00 | 0.00 | 61 | 1017.2 |
| 20260501213617 | 28 | 242 | 8.0 | 19.3 | 0.00 | 0.00 | 0.00 | 62 | 1017.1 |
| 20260501213521 | 28 | 203 | 6.4 | 19.3 | 0.00 | 0.00 | 0.00 | 62 | 1017.2 |
| 20260501213422 | 28 | 231 | 8.0 | 19.3 | 0.00 | 0.00 | 0.00 | 61 | 1017.2 |
| 20260501213324 | 28 | 225 | 9.7 | 19.3 | 0.00 | 0.00 | 0.00 | 61 | 1017.2 |
| 20260501213210 | 29 | 203 | 9.7 | 22.5 | 0.00 | 0.00 | 0.00 | 61 | 1017.0 |
| 20260501213113 | 29 | 212 | 8.0 | 22.5 | 0.00 | 0.00 | 0.00 | 61 | 1017.1 |
| 20260501213015 | 29 | 215 | 8.0 | 22.5 | 0.00 | 0.00 | 0.00 | 61 | 1017.1 |
| 20260501212937 | 29 | 279 | 8.0 | 22.5 | 0.00 | 0.00 | 0.00 | 62 | 1017.0 |
| 20260501212818 | 29 | 305 | 9.7 | 22.5 | 0.00 | 0.00 | 0.00 | 62 | 1017.0 |
| 20260501212741 | 28 | 263 | 8.0 | 22.5 | 0.00 | 0.00 | 0.00 | 62 | 1017.0 |
| 20260501212643 | 28 | 252 | 6.4 | 22.5 | 0.00 | 0.00 | 0.00 | 62 | 1017.0 |
| 20260501212509 | 28 | 271 | 11.3 | 22.5 | 0.00 | 0.00 | 0.00 | 62 | 1017.1 |
| 20260501212409 | 28 | 248 | 12.9 | 22.5 | 0.00 | 0.00 | 0.00 | 61 | 1016.9 |
| 20260501212333 | 29 | 250 | 12.9 | 20.9 | 0.00 | 0.00 | 0.00 | 62 | 1017.0 |
| 20260501212233 | 29 | 197 | 12.9 | 20.9 | 0.00 | 0.00 | 0.00 | 62 | 1017.0 |
| 20260501212113 | 29 | 244 | 11.3 | 20.9 | 0.00 | 0.00 | 0.00 | 62 | 1017.0 |
| 20260501212014 | 29 | 233 | 9.7 | 20.9 | 0.00 | 0.00 | 0.00 | 62 | 1016.9 |
| 20260501211913 | 29 | 277 | 11.3 | 20.9 | 0.00 | 0.00 | 0.00 | 62 | 1016.9 |
| 20260501211815 | 29 | 257 | 9.7 | 20.9 | 0.00 | 0.00 | 0.00 | 62 | 1017.1 |
| 20260501211715 | 29 | 260 | 9.7 | 20.9 | 0.00 | 0.00 | 0.00 | 63 | 1017.0 |
| 20260501211623 | 29 | 328 | 9.7 | 20.9 | 0.00 | 0.00 | 0.00 | 62 | 1017.0 |
| 20260501211524 | 29 | 220 | 9.7 | 20.9 | 0.00 | 0.00 | 0.00 | 62 | 1017.0 |
| 20260501211406 | 29 | 234 | 11.3 | 20.9 | 0.00 | 0.00 | 0.00 | 61 | 1017.0 |
| 20260501211308 | 29 | 284 | 9.7 | 20.9 | 0.00 | 0.00 | 0.00 | 61 | 1017.0 |
| 20260501211231 | 29 | 247 | 8.0 | 17.7 | 0.00 | 0.00 | 0.00 | 61 | 1017.2 |
| 20260501211112 | 30 | 219 | 8.0 | 17.7 | 0.00 | 0.00 | 0.00 | 61 | 1017.1 |
| 20260501211013 | 30 | 212 | 6.4 | 17.7 | 0.00 | 0.00 | 0.00 | 61 | 1017.0 |
| 20260501210919 | 30 | 271 | 4.8 | 20.9 | 0.00 | 0.00 | 0.00 | 61 | 1017.1 |
| 20260501210822 | 29 | 313 | 6.4 | 20.9 | 0.00 | 0.00 | 0.00 | 61 | 1017.2 |
| 20260501210723 | 29 | 233 | 6.4 | 20.9 | 0.00 | 0.00 | 0.00 | 61 | 1017.1 |
| 20260501210605 | 30 | 227 | 6.4 | 20.9 | 0.00 | 0.00 | 0.00 | 62 | 1017.1 |
| 20260501210507 | 30 | 248 | 8.0 | 20.9 | 0.00 | 0.00 | 0.00 | 61 | 1017.2 |
| 20260501210430 | 30 | 180 | 8.0 | 20.9 | 0.00 | 0.00 | 0.00 | 61 | 1017.2 |
| 20260501210310 | 30 | 273 | 6.4 | 20.9 | 0.00 | 0.00 | 0.00 | 61 | 1017.1 |
| 20260501210215 | 30 | 197 | 6.4 | 20.9 | 0.00 | 0.00 | 0.00 | 62 | 1017.2 |
| 20260501210138 | 30 | 205 | 8.0 | 20.9 | 0.00 | 0.00 | 0.00 | 62 | 1017.3 |
| 20260501210040 | 30 | 200 | 6.4 | 16.1 | 0.00 | 0.00 | 0.00 | 62 | 1017.2 |
| 20260501205920 | 30 | 222 | 6.4 | 16.1 | 0.00 | 0.00 | 0.00 | 62 | 1017.2 |
| 20260501205805 | 30 | 302 | 8.0 | 16.1 | 0.00 | 0.00 | 0.00 | 62 | 1017.3 |
| 20260501205707 | 29 | 201 | 8.0 | 16.1 | 0.00 | 0.00 | 0.00 | 62 | 1017.2 |
| 20260501205608 | 29 | 261 | 6.4 | 16.1 | 0.00 | 0.00 | 0.00 | 62 | 1017.2 |
| 20260501205532 | 29 | 204 | 6.4 | 16.1 | 0.00 | 0.00 | 0.00 | 62 | 1017.2 |
| 20260501205412 | 30 | 238 | 8.0 | 16.1 | 0.00 | 0.00 | 0.00 | 61 | 1017.2 |
| 20260501205315 | 30 | 169 | 9.7 | 16.1 | 0.00 | 0.00 | 0.00 | 61 | 1017.3 |
| 20260501205216 | 30 | 229 | 8.0 | 17.7 | 0.00 | 0.00 | 0.00 | 62 | 1017.3 |
| 20260501205140 | 30 | 259 | 6.4 | 17.7 | 0.00 | 0.00 | 0.00 | 62 | 1017.3 |
| 20260501205041 | 30 | 229 | 4.8 | 17.7 | 0.00 | 0.00 | 0.00 | 62 | 1017.3 |
| 20260501204920 | 30 | 172 | 4.8 | 17.7 | 0.00 | 0.00 | 0.00 | 63 | 1017.3 |
| 20260501204823 | 30 | 197 | 6.4 | 22.5 | 0.00 | 0.00 | 0.00 | 63 | 1017.3 |
| 20260501204744 | 30 | 302 | 8.0 | 22.5 | 0.00 | 0.00 | 0.00 | 62 | 1017.2 |
| 20260501204606 | 30 | 263 | 9.7 | 22.5 | 0.00 | 0.00 | 0.00 | 62 | 1017.1 |
| 20260501204513 | 30 | 204 | 8.0 | 22.5 | 0.00 | 0.00 | 0.00 | 62 | 1017.3 |
| 20260501204416 | 29 | 265 | 6.4 | 22.5 | 0.00 | 0.00 | 0.00 | 62 | 1017.2 |
| 20260501204320 | 30 | 149 | 6.4 | 22.5 | 0.00 | 0.00 | 0.00 | 61 | 1017.2 |
| 20260501204220 | 30 | 198 | 8.0 | 22.5 | 0.00 | 0.00 | 0.00 | 61 | 1017.3 |
| 20260501204122 | 30 | 202 | 9.7 | 22.5 | 0.00 | 0.00 | 0.00 | 61 | 1017.3 |
| 20260501204024 | 30 | 254 | 8.0 | 22.5 | 0.00 | 0.00 | 0.00 | 61 | 1017.3 |
| 20260501203905 | 30 | 223 | 4.8 | 16.1 | 0.00 | 0.00 | 0.00 | 62 | 1017.2 |
| 20260501203811 | 30 | 303 | 4.8 | 16.1 | 0.00 | 0.00 | 0.00 | 62 | 1017.2 |
| 20260501203713 | 30 | 292 | 6.4 | 16.1 | 0.00 | 0.00 | 0.00 | 62 | 1017.2 |
| 20260501203615 | 30 | 290 | 6.4 | 16.1 | 0.00 | 0.00 | 0.00 | 62 | 1017.1 |
| 20260501203520 | 30 | 286 | 8.0 | 16.1 | 0.00 | 0.00 | 0.00 | 63 | 1017.1 |
| 20260501203423 | 30 | 227 | 9.7 | 16.1 | 0.00 | 0.00 | 0.00 | 62 | 1017.1 |
| 20260501203304 | 30 | 228 | 9.7 | 16.1 | 0.00 | 0.00 | 0.00 | 62 | 1017.2 |
| 20260501203227 | 30 | 266 | 6.4 | 17.7 | 0.00 | 0.00 | 0.00 | 63 | 1017.2 |
| 20260501203113 | 30 | 200 | 4.8 | 17.7 | 0.00 | 0.00 | 0.00 | 63 | 1017.2 |
| 20260501203017 | 30 | 216 | 6.4 | 17.7 | 0.00 | 0.00 | 0.00 | 63 | 1017.2 |
| 20260501202941 | 30 | 190 | 8.0 | 17.7 | 0.00 | 0.00 | 0.00 | 63 | 1017.2 |
| 20260501202824 | 30 | 203 | 9.7 | 17.7 | 0.00 | 0.00 | 0.00 | 63 | 1017.2 |
| 20260501202707 | 30 | 217 | 8.0 | 19.3 | 0.00 | 0.00 | 0.00 | 63 | 1017.2 |
| 20260501202629 | 30 | 227 | 6.4 | 19.3 | 0.00 | 0.00 | 0.00 | 63 | 1017.3 |
| 20260501202532 | 30 | 263 | 4.8 | 19.3 | 0.00 | 0.00 | 0.00 | 63 | 1017.2 |
| 20260501202434 | 30 | 190 | 4.8 | 19.3 | 0.00 | 0.00 | 0.00 | 63 | 1017.3 |
| 20260501202321 | 29 | 197 | 4.8 | 19.3 | 0.00 | 0.00 | 0.00 | 64 | 1017.2 |
| 20260501202224 | 29 | 235 | 3.2 | 19.3 | 0.00 | 0.00 | 0.00 | 63 | 1017.2 |
| 20260501202104 | 29 | 163 | 6.4 | 19.3 | 0.00 | 0.00 | 0.00 | 63 | 1017.2 |
| 20260501202007 | 29 | 129 | 8.0 | 19.3 | 0.00 | 0.00 | 0.00 | 63 | 1017.3 |
| 20260501201910 | 30 | 229 | 8.0 | 19.3 | 0.00 | 0.00 | 0.00 | 64 | 1017.3 |
| 20260501201813 | 30 | 188 | 4.8 | 17.7 | 0.00 | 0.00 | 0.00 | 63 | 1017.3 |
| 20260501201717 | 30 | 169 | 6.4 | 19.3 | 0.00 | 0.00 | 0.00 | 64 | 1017.3 |
| 20260501201623 | 30 | 184 | 9.7 | 19.3 | 0.00 | 0.00 | 0.00 | 64 | 1017.2 |
| 20260501201507 | 29 | 254 | 8.0 | 19.3 | 0.00 | 0.00 | 0.00 | 63 | 1017.2 |
| 20260501201409 | 29 | 233 | 8.0 | 19.3 | 0.00 | 0.00 | 0.00 | 64 | 1017.3 |
| 20260501201312 | 29 | 261 | 8.0 | 19.3 | 0.00 | 0.00 | 0.00 | 63 | 1017.2 |
| 20260501201216 | 29 | 277 | 8.0 | 19.3 | 0.00 | 0.00 | 0.00 | 63 | 1017.2 |
| 20260501201116 | 29 | 261 | 6.4 | 19.3 | 0.00 | 0.00 | 0.00 | 64 | 1017.3 |
| 20260501201024 | 29 | 276 | 6.4 | 19.3 | 0.00 | 0.00 | 0.00 | 63 | 1017.3 |
| 20260501200906 | 29 | 213 | 9.7 | 19.3 | 0.00 | 0.00 | 0.00 | 63 | 1017.2 |
| 20260501200810 | 29 | 211 | 8.0 | 19.3 | 0.00 | 0.00 | 0.00 | 64 | 1017.2 |
| 20260501200713 | 29 | 296 | 6.4 | 14.5 | 0.00 | 0.00 | 0.00 | 64 | 1017.3 |
| 20260501200615 | 29 | 215 | 8.0 | 14.5 | 0.00 | 0.00 | 0.00 | 64 | 1017.2 |
| 20260501200517 | 30 | 295 | 8.0 | 17.7 | 0.00 | 0.00 | 0.00 | 64 | 1017.3 |
| 20260501200419 | 30 | 182 | 6.4 | 17.7 | 0.00 | 0.00 | 0.00 | 64 | 1017.3 |